Time,TemperatureF,DewpointF,PressureIn,WindDirection,WindDirectionDegrees,WindSpeedMPH,WindSpeedGustMPH,Humidity,HourlyPrecipIn,Conditions,Clouds,dailyrainin,SoftwareType,DateUTC
2014-01-02 00:00:00,32.8,29.4,30.17,WSW,241,0.0,0.0,87,0.00,,,0.00,Wunderground v.1.15,2014-01-02 05:00:00,
2014-01-02 00:01:00,32.8,29.4,30.17,WSW,242,0.0,0.0,87,0.00,,,0.00,Wunderground v.1.15,2014-01-02 05:01:00,
2014-01-02 00:03:00,32.8,29.4,30.17,WSW,241,0.0,0.0,87,0.00,,,0.00,Wunderground v.1.15,2014-01-02 05:03:00,
2014-01-02 00:04:00,32.7,29.3,30.17,WSW,242,0.0,0.0,87,0.00,,,0.00,Wunderground v.1.15,2014-01-02 05:04:00,
2014-01-02 00:06:00,32.8,29.4,30.17,WSW,242,0.0,0.0,87,0.00,,,0.00,Wunderground v.1.15,2014-01-02 05:06:00,
2014-01-02 00:08:00,32.8,29.4,30.17,WSW,242,0.0,0.0,87,0.00,,,0.00,Wunderground v.1.15,2014-01-02 05:08:00,
2014-01-02 00:09:00,32.8,29.4,30.17,WSW,242,0.0,0.0,87,0.00,,,0.00,Wunderground v.1.15,2014-01-02 05:09:00,
2014-01-02 00:10:00,32.8,29.4,30.17,WSW,242,0.0,0.0,87,0.00,,,0.00,Wunderground v.1.15,2014-01-02 05:10:00,
2014-01-02 00:12:00,32.8,29.6,30.17,WSW,242,0.0,0.0,88,0.00,,,0.00,Wunderground v.1.15,2014-01-02 05:12:00,
2014-01-02 00:15:00,32.8,29.6,30.17,WSW,241,0.0,0.0,88,0.00,,,0.00,Wunderground v.1.15,2014-01-02 05:15:00,
2014-01-02 00:16:00,32.8,29.6,30.17,WSW,241,0.0,0.0,88,0.00,,,0.00,Wunderground v.1.15,2014-01-02 05:16:00,
2014-01-02 00:17:00,32.8,29.6,30.17,WSW,242,0.0,0.0,88,0.00,,,0.00,Wunderground v.1.15,2014-01-02 05:17:00,
2014-01-02 00:21:00,32.8,29.6,30.17,WSW,241,0.0,0.0,88,0.00,,,0.00,Wunderground v.1.15,2014-01-02 05:21:00,
2014-01-02 00:22:00,32.8,29.6,30.17,WSW,242,0.0,0.0,88,0.00,,,0.00,Wunderground v.1.15,2014-01-02 05:22:00,
2014-01-02 00:23:00,32.8,29.6,30.17,WSW,241,0.0,0.0,88,0.00,,,0.00,Wunderground v.1.15,2014-01-02 05:23:00,
2014-01-02 00:24:00,32.8,29.6,30.17,WSW,242,0.0,0.0,88,0.00,,,0.00,Wunderground v.1.15,2014-01-02 05:24:00,
2014-01-02 00:27:00,32.8,29.6,30.16,WSW,242,0.0,0.0,88,0.00,,,0.00,Wunderground v.1.15,2014-01-02 05:27:00,
2014-01-02 00:28:00,32.8,29.6,30.16,WSW,242,0.0,0.0,88,0.00,,,0.00,Wunderground v.1.15,2014-01-02 05:28:00,
2014-01-02 00:29:00,32.8,29.6,30.16,WSW,241,0.0,0.0,88,0.00,,,0.00,Wunderground v.1.15,2014-01-02 05:29:00,
2014-01-02 00:30:00,32.8,29.6,30.16,WSW,242,0.0,0.0,88,0.00,,,0.00,Wunderground v.1.15,2014-01-02 05:30:00,
2014-01-02 00:33:00,32.8,29.6,30.16,WSW,242,0.0,0.0,88,0.00,,,0.00,Wunderground v.1.15,2014-01-02 05:33:00,
2014-01-02 00:34:00,32.8,29.6,30.16,WSW,242,0.0,0.0,88,0.00,,,0.00,Wunderground v.1.15,2014-01-02 05:34:00,
2014-01-02 00:35:00,32.8,29.6,30.16,WSW,241,0.0,0.0,88,0.00,,,0.00,Wunderground v.1.15,2014-01-02 05:35:00,
2014-01-02 00:36:00,32.9,29.7,30.16,WSW,242,0.0,0.0,88,0.00,,,0.00,Wunderground v.1.15,2014-01-02 05:36:00,
2014-01-02 00:37:00,32.8,29.6,30.16,WSW,241,0.0,0.0,88,0.00,,,0.00,Wunderground v.1.15,2014-01-02 05:37:00,
2014-01-02 00:39:00,32.9,29.7,30.16,WSW,241,0.0,0.0,88,0.00,,,0.00,Wunderground v.1.15,2014-01-02 05:39:00,
2014-01-02 00:40:00,32.9,29.7,30.16,WSW,242,0.0,0.0,88,0.00,,,0.00,Wunderground v.1.15,2014-01-02 05:40:00,
2014-01-02 00:42:00,33.0,29.8,30.17,WSW,241,0.0,0.0,88,0.00,,,0.00,Wunderground v.1.15,2014-01-02 05:42:00,
2014-01-02 00:43:00,33.0,29.8,30.17,WSW,241,0.0,0.0,88,0.00,,,0.00,Wunderground v.1.15,2014-01-02 05:43:00,
2014-01-02 00:44:00,33.1,29.9,30.17,WSW,255,1.0,1.0,88,0.00,,,0.00,Wunderground v.1.15,2014-01-02 05:44:00,
2014-01-02 00:47:00,33.3,29.8,30.16,WSW,255,0.0,1.0,87,0.00,,,0.00,Wunderground v.1.15,2014-01-02 05:47:00,
2014-01-02 00:48:00,33.4,29.9,30.16,WSW,255,0.0,1.0,87,0.00,,,0.00,Wunderground v.1.15,2014-01-02 05:48:00,
2014-01-02 00:49:00,33.4,29.9,30.16,WSW,255,0.0,1.0,87,0.00,,,0.00,Wunderground v.1.15,2014-01-02 05:49:00,
2014-01-02 00:50:00,33.4,29.9,30.16,WSW,255,0.0,0.0,87,0.00,,,0.00,Wunderground v.1.15,2014-01-02 05:50:00,
2014-01-02 00:52:00,33.4,29.9,30.16,WSW,255,0.0,0.0,87,0.00,,,0.00,Wunderground v.1.15,2014-01-02 05:52:00,
2014-01-02 00:54:00,33.4,29.9,30.16,WSW,255,0.0,0.0,87,0.00,,,0.00,Wunderground v.1.15,2014-01-02 05:54:00,
2014-01-02 00:55:00,33.4,29.9,30.16,WSW,255,0.0,0.0,87,0.00,,,0.00,Wunderground v.1.15,2014-01-02 05:55:00,
2014-01-02 00:57:00,33.4,29.9,30.16,WSW,255,0.0,0.0,87,0.00,,,0.00,Wunderground v.1.15,2014-01-02 05:57:00,
2014-01-02 00:58:00,33.4,29.9,30.15,WSW,255,0.0,0.0,87,0.00,,,0.00,Wunderground v.1.15,2014-01-02 05:58:00,
2014-01-02 01:00:00,33.4,30.2,30.15,WSW,255,0.0,0.0,88,0.00,,,0.00,Wunderground v.1.15,2014-01-02 06:00:00,
2014-01-02 01:02:00,33.4,30.2,30.15,WSW,255,0.0,0.0,88,0.00,,,0.00,Wunderground v.1.15,2014-01-02 06:02:00,
2014-01-02 01:06:00,33.3,30.1,30.15,WSW,255,0.0,0.0,88,0.00,,,0.00,Wunderground v.1.15,2014-01-02 06:06:00,
2014-01-02 01:07:00,33.3,30.1,30.15,WSW,255,0.0,0.0,88,0.00,,,0.00,Wunderground v.1.15,2014-01-02 06:07:00,
2014-01-02 01:08:00,33.3,30.1,30.15,WSW,255,0.0,0.0,88,0.00,,,0.00,Wunderground v.1.15,2014-01-02 06:08:00,
2014-01-02 01:09:00,33.2,30.0,30.15,WSW,255,0.0,0.0,88,0.00,,,0.00,Wunderground v.1.15,2014-01-02 06:09:00,
2014-01-02 01:11:00,33.2,30.3,30.14,WSW,255,0.0,0.0,89,0.00,,,0.00,Wunderground v.1.15,2014-01-02 06:11:00,
2014-01-02 01:13:00,33.1,30.2,30.14,WSW,255,0.0,0.0,89,0.00,,,0.00,Wunderground v.1.15,2014-01-02 06:13:00,
2014-01-02 01:14:00,33.1,30.2,30.15,WSW,255,0.0,0.0,89,0.00,,,0.00,Wunderground v.1.15,2014-01-02 06:14:00,
2014-01-02 01:15:00,33.1,30.2,30.15,WSW,255,0.0,0.0,89,0.00,,,0.00,Wunderground v.1.15,2014-01-02 06:15:00,
2014-01-02 01:16:00,33.1,30.2,30.15,SW,235,0.0,0.0,89,0.00,,,0.00,Wunderground v.1.15,2014-01-02 06:16:00,
2014-01-02 01:19:00,33.2,30.3,30.14,SW,234,0.0,0.0,89,0.00,,,0.00,Wunderground v.1.15,2014-01-02 06:19:00,
2014-01-02 01:21:00,33.3,30.4,30.15,SW,235,0.0,0.0,89,0.00,,,0.00,Wunderground v.1.15,2014-01-02 06:21:00,
2014-01-02 01:24:00,33.4,30.2,30.15,SW,236,0.0,0.0,88,0.00,,,0.00,Wunderground v.1.15,2014-01-02 06:24:00,
2014-01-02 01:25:00,33.5,30.3,30.15,SW,236,0.0,0.0,88,0.00,,,0.00,Wunderground v.1.15,2014-01-02 06:25:00,
2014-01-02 01:27:00,33.5,30.3,30.15,SW,236,0.0,0.0,88,0.00,,,0.00,Wunderground v.1.15,2014-01-02 06:27:00,
2014-01-02 01:29:00,33.5,30.3,30.14,SW,236,0.0,0.0,88,0.00,,,0.00,Wunderground v.1.15,2014-01-02 06:29:00,
2014-01-02 01:31:00,33.5,30.3,30.14,SW,236,0.0,0.0,88,0.00,,,0.00,Wunderground v.1.15,2014-01-02 06:31:00,
2014-01-02 01:32:00,33.5,30.3,30.14,SW,236,0.0,0.0,88,0.00,,,0.00,Wunderground v.1.15,2014-01-02 06:32:00,
2014-01-02 01:33:00,33.5,30.3,30.15,SW,236,0.0,0.0,88,0.00,,,0.00,Wunderground v.1.15,2014-01-02 06:33:00,
2014-01-02 01:34:00,33.5,30.3,30.15,SW,236,0.0,0.0,88,0.00,,,0.00,Wunderground v.1.15,2014-01-02 06:34:00,
2014-01-02 01:38:00,33.7,30.5,30.15,SW,232,0.0,0.0,88,0.00,,,0.00,Wunderground v.1.15,2014-01-02 06:38:00,
2014-01-02 01:39:00,33.8,30.6,30.15,SW,232,0.0,0.0,88,0.00,,,0.00,Wunderground v.1.15,2014-01-02 06:39:00,
2014-01-02 01:41:00,34.0,30.5,30.15,SW,232,0.0,0.0,87,0.00,,,0.00,Wunderground v.1.15,2014-01-02 06:41:00,
2014-01-02 01:43:00,34.1,30.4,30.14,SW,232,0.0,0.0,86,0.00,,,0.00,Wunderground v.1.15,2014-01-02 06:43:00,
2014-01-02 01:44:00,34.2,30.4,30.14,SW,232,0.0,0.0,86,0.00,,,0.00,Wunderground v.1.15,2014-01-02 06:44:00,
2014-01-02 01:45:00,34.2,30.4,30.14,SW,232,0.0,0.0,86,0.00,,,0.00,Wunderground v.1.15,2014-01-02 06:45:00,
2014-01-02 01:49:00,34.1,30.6,30.14,SW,232,0.0,0.0,87,0.00,,,0.00,Wunderground v.1.15,2014-01-02 06:49:00,
2014-01-02 01:50:00,34.1,30.6,30.14,SW,232,0.0,0.0,87,0.00,,,0.00,Wunderground v.1.15,2014-01-02 06:50:00,
2014-01-02 01:53:00,34.1,30.6,30.14,SW,232,0.0,0.0,87,0.00,,,0.00,Wunderground v.1.15,2014-01-02 06:53:00,
2014-01-02 01:54:00,34.0,30.5,30.14,SW,232,0.0,0.0,87,0.00,,,0.00,Wunderground v.1.15,2014-01-02 06:54:00,
2014-01-02 01:55:00,34.0,30.5,30.14,SW,232,0.0,0.0,87,0.00,,,0.00,Wunderground v.1.15,2014-01-02 06:55:00,
2014-01-02 01:56:00,34.0,30.5,30.14,SW,232,0.0,0.0,87,0.00,,,0.00,Wunderground v.1.15,2014-01-02 06:56:00,
2014-01-02 02:00:00,33.9,30.4,30.14,SW,232,0.0,0.0,87,0.00,,,0.00,Wunderground v.1.15,2014-01-02 07:00:00,
2014-01-02 02:01:00,33.9,30.4,30.14,SW,232,0.0,0.0,87,0.00,,,0.00,Wunderground v.1.15,2014-01-02 07:01:00,
2014-01-02 02:02:00,33.9,30.4,30.14,SW,232,0.0,0.0,87,0.00,,,0.00,Wunderground v.1.15,2014-01-02 07:02:00,
2014-01-02 02:05:00,33.9,30.4,30.14,SW,232,0.0,0.0,87,0.00,,,0.00,Wunderground v.1.15,2014-01-02 07:05:00,
2014-01-02 02:06:00,33.8,30.3,30.14,SW,232,0.0,0.0,87,0.00,,,0.00,Wunderground v.1.15,2014-01-02 07:06:00,
2014-01-02 02:07:00,33.8,30.3,30.13,SW,232,0.0,0.0,87,0.00,,,0.00,Wunderground v.1.15,2014-01-02 07:07:00,
2014-01-02 02:10:00,33.8,30.6,30.13,SW,232,0.0,0.0,88,0.00,,,0.00,Wunderground v.1.15,2014-01-02 07:10:00,
2014-01-02 02:11:00,33.8,30.6,30.13,SW,232,0.0,0.0,88,0.00,,,0.00,Wunderground v.1.15,2014-01-02 07:11:00,
2014-01-02 02:12:00,33.9,30.7,30.12,SW,232,0.0,0.0,88,0.00,,,0.00,Wunderground v.1.15,2014-01-02 07:12:00,
2014-01-02 02:15:00,33.9,30.7,30.13,SW,232,0.0,0.0,88,0.00,,,0.00,Wunderground v.1.15,2014-01-02 07:15:00,
2014-01-02 02:16:00,33.9,31.0,30.13,SW,232,0.0,0.0,89,0.00,,,0.00,Wunderground v.1.15,2014-01-02 07:16:00,
2014-01-02 02:17:00,33.9,31.0,30.13,SW,232,0.0,0.0,89,0.00,,,0.00,Wunderground v.1.15,2014-01-02 07:17:00,
2014-01-02 02:18:00,34.0,31.1,30.13,SW,232,0.0,0.0,89,0.00,,,0.00,Wunderground v.1.15,2014-01-02 07:18:00,
2014-01-02 02:21:00,34.0,31.1,30.13,SW,232,0.0,0.0,89,0.00,,,0.00,Wunderground v.1.15,2014-01-02 07:21:00,
2014-01-02 02:22:00,34.1,31.2,30.13,SW,232,0.0,0.0,89,0.00,,,0.00,Wunderground v.1.15,2014-01-02 07:22:00,
2014-01-02 02:23:00,34.0,31.1,30.13,SW,231,0.0,0.0,89,0.00,,,0.00,Wunderground v.1.15,2014-01-02 07:23:00,
2014-01-02 02:26:00,34.0,31.1,30.13,SW,232,0.0,1.0,89,0.00,,,0.00,Wunderground v.1.15,2014-01-02 07:26:00,
2014-01-02 02:27:00,34.0,31.1,30.13,SW,232,0.0,1.0,89,0.00,,,0.00,Wunderground v.1.15,2014-01-02 07:27:00,
2014-01-02 02:28:00,34.0,31.1,30.13,SW,232,0.0,1.0,89,0.00,,,0.00,Wunderground v.1.15,2014-01-02 07:28:00,
2014-01-02 02:31:00,34.0,31.1,30.13,SW,232,0.0,0.0,89,0.00,,,0.00,Wunderground v.1.15,2014-01-02 07:31:00,
2014-01-02 02:32:00,34.0,31.1,30.13,SW,232,0.0,0.0,89,0.00,,,0.00,Wunderground v.1.15,2014-01-02 07:32:00,
2014-01-02 02:33:00,34.0,31.1,30.13,SW,232,0.0,0.0,89,0.00,,,0.00,Wunderground v.1.15,2014-01-02 07:33:00,
2014-01-02 02:36:00,33.9,31.0,30.13,SW,232,0.0,0.0,89,0.00,,,0.00,Wunderground v.1.15,2014-01-02 07:36:00,
2014-01-02 02:37:00,33.9,31.0,30.13,SW,232,0.0,0.0,89,0.00,,,0.00,Wunderground v.1.15,2014-01-02 07:37:00,
2014-01-02 02:38:00,33.9,31.0,30.13,SW,232,0.0,0.0,89,0.00,,,0.00,Wunderground v.1.15,2014-01-02 07:38:00,
2014-01-02 02:41:00,33.9,31.0,30.13,SW,232,0.0,0.0,89,0.00,,,0.00,Wunderground v.1.15,2014-01-02 07:41:00,
2014-01-02 02:42:00,33.9,31.0,30.13,SW,232,0.0,0.0,89,0.00,,,0.00,Wunderground v.1.15,2014-01-02 07:42:00,
2014-01-02 02:43:00,33.9,31.0,30.13,SW,232,0.0,0.0,89,0.00,,,0.00,Wunderground v.1.15,2014-01-02 07:43:00,
2014-01-02 02:44:00,33.9,31.0,30.13,SW,232,0.0,0.0,89,0.00,,,0.00,Wunderground v.1.15,2014-01-02 07:44:00,
2014-01-02 02:47:00,33.9,31.3,30.12,SW,232,0.0,0.0,90,0.00,,,0.00,Wunderground v.1.15,2014-01-02 07:47:00,
2014-01-02 02:48:00,33.9,31.3,30.12,SW,232,0.0,0.0,90,0.00,,,0.00,Wunderground v.1.15,2014-01-02 07:48:00,
2014-01-02 02:49:00,33.9,31.3,30.12,SW,232,0.0,0.0,90,0.00,,,0.00,Wunderground v.1.15,2014-01-02 07:49:00,
2014-01-02 02:50:00,33.9,31.3,30.12,SW,232,0.0,0.0,90,0.00,,,0.00,Wunderground v.1.15,2014-01-02 07:50:00,
2014-01-02 02:52:00,33.9,31.0,30.11,SW,232,0.0,0.0,89,0.00,,,0.00,Wunderground v.1.15,2014-01-02 07:52:00,
2014-01-02 02:53:00,33.9,31.0,30.11,SW,232,0.0,0.0,89,0.00,,,0.00,Wunderground v.1.15,2014-01-02 07:53:00,
2014-01-02 02:54:00,33.9,31.3,30.11,SW,232,0.0,0.0,90,0.00,,,0.00,Wunderground v.1.15,2014-01-02 07:54:00,
2014-01-02 02:55:00,33.9,31.3,30.11,SW,232,0.0,0.0,90,0.00,,,0.00,Wunderground v.1.15,2014-01-02 07:55:00,
2014-01-02 02:58:00,33.9,31.3,30.11,SW,232,0.0,0.0,90,0.00,,,0.00,Wunderground v.1.15,2014-01-02 07:58:00,
2014-01-02 02:59:00,33.9,31.3,30.12,SW,232,0.0,0.0,90,0.00,,,0.00,Wunderground v.1.15,2014-01-02 07:59:00,
2014-01-02 03:00:00,33.9,31.3,30.12,SW,232,0.0,0.0,90,0.00,,,0.00,Wunderground v.1.15,2014-01-02 08:00:00,
2014-01-02 03:03:00,33.9,31.3,30.11,SW,232,0.0,0.0,90,0.00,,,0.00,Wunderground v.1.15,2014-01-02 08:03:00,
2014-01-02 03:04:00,33.9,31.3,30.11,SW,232,0.0,0.0,90,0.00,,,0.00,Wunderground v.1.15,2014-01-02 08:04:00,
2014-01-02 03:05:00,33.9,31.3,30.11,SW,232,0.0,0.0,90,0.00,,,0.00,Wunderground v.1.15,2014-01-02 08:05:00,
2014-01-02 03:08:00,33.9,31.6,30.11,SW,232,0.0,0.0,91,0.00,,,0.00,Wunderground v.1.15,2014-01-02 08:08:00,
2014-01-02 03:10:00,33.9,31.6,30.11,SW,232,0.0,0.0,91,0.00,,,0.00,Wunderground v.1.15,2014-01-02 08:10:00,
2014-01-02 03:13:00,33.9,31.6,30.11,SW,232,0.0,0.0,91,0.00,,,0.00,Wunderground v.1.15,2014-01-02 08:13:00,
2014-01-02 03:14:00,33.9,31.6,30.11,SW,232,0.0,0.0,91,0.00,,,0.00,Wunderground v.1.15,2014-01-02 08:14:00,
2014-01-02 03:15:00,33.9,31.6,30.11,SW,232,0.0,0.0,91,0.00,,,0.00,Wunderground v.1.15,2014-01-02 08:15:00,
2014-01-02 03:16:00,33.9,31.6,30.11,SW,232,0.0,0.0,91,0.00,,,0.00,Wunderground v.1.15,2014-01-02 08:16:00,
2014-01-02 03:17:00,33.9,31.6,30.11,SW,232,0.0,0.0,91,0.00,,,0.00,Wunderground v.1.15,2014-01-02 08:17:00,
2014-01-02 03:19:00,33.9,31.6,30.11,SW,232,0.0,0.0,91,0.00,,,0.00,Wunderground v.1.15,2014-01-02 08:19:00,
2014-01-02 03:20:00,33.9,31.6,30.11,SW,232,0.0,0.0,91,0.00,,,0.00,Wunderground v.1.15,2014-01-02 08:20:00,
2014-01-02 03:21:00,34.0,31.6,30.11,SW,232,0.0,0.0,91,0.00,,,0.00,Wunderground v.1.15,2014-01-02 08:21:00,
2014-01-02 03:22:00,33.9,31.6,30.11,SW,233,0.0,0.0,91,0.00,,,0.00,Wunderground v.1.15,2014-01-02 08:22:00,
2014-01-02 03:25:00,34.0,31.6,30.11,SW,232,0.0,0.0,91,0.00,,,0.00,Wunderground v.1.15,2014-01-02 08:25:00,
2014-01-02 03:26:00,34.0,31.6,30.11,SW,232,0.0,0.0,91,0.00,,,0.00,Wunderground v.1.15,2014-01-02 08:26:00,
2014-01-02 03:27:00,34.0,31.6,30.11,SW,232,0.0,0.0,91,0.00,,,0.00,Wunderground v.1.15,2014-01-02 08:27:00,
2014-01-02 03:30:00,34.1,31.7,30.10,SW,233,0.0,0.0,91,0.00,,,0.00,Wunderground v.1.15,2014-01-02 08:30:00,
2014-01-02 03:31:00,34.1,31.7,30.10,SW,232,0.0,0.0,91,0.00,,,0.00,Wunderground v.1.15,2014-01-02 08:31:00,
2014-01-02 03:32:00,34.1,31.7,30.10,SW,232,0.0,0.0,91,0.00,,,0.00,Wunderground v.1.15,2014-01-02 08:32:00,
2014-01-02 03:33:00,34.1,31.7,30.10,SW,232,0.0,0.0,91,0.00,,,0.00,Wunderground v.1.15,2014-01-02 08:33:00,
2014-01-02 03:35:00,34.2,31.8,30.10,SW,232,0.0,0.0,91,0.00,,,0.00,Wunderground v.1.15,2014-01-02 08:35:00,
2014-01-02 03:36:00,34.2,31.8,30.10,SW,232,0.0,0.0,91,0.00,,,0.00,Wunderground v.1.15,2014-01-02 08:36:00,
2014-01-02 03:37:00,34.2,31.8,30.09,SW,232,0.0,0.0,91,0.00,,,0.00,Wunderground v.1.15,2014-01-02 08:37:00,
2014-01-02 03:38:00,34.2,31.8,30.09,SW,232,0.0,0.0,91,0.00,,,0.00,Wunderground v.1.15,2014-01-02 08:38:00,
2014-01-02 03:41:00,34.2,31.8,30.09,SW,232,0.0,0.0,91,0.00,,,0.00,Wunderground v.1.15,2014-01-02 08:41:00,
2014-01-02 03:42:00,34.2,31.8,30.09,SW,232,0.0,0.0,91,0.00,,,0.00,Wunderground v.1.15,2014-01-02 08:42:00,
2014-01-02 03:43:00,34.1,31.7,30.09,SW,232,0.0,0.0,91,0.00,,,0.00,Wunderground v.1.15,2014-01-02 08:43:00,
2014-01-02 03:46:00,34.1,31.7,30.09,SW,232,0.0,0.0,91,0.00,,,0.00,Wunderground v.1.15,2014-01-02 08:46:00,
2014-01-02 03:47:00,34.1,31.7,30.09,SW,232,0.0,0.0,91,0.00,,,0.00,Wunderground v.1.15,2014-01-02 08:47:00,
2014-01-02 03:48:00,34.1,31.7,30.08,SW,232,0.0,0.0,91,0.00,,,0.00,Wunderground v.1.15,2014-01-02 08:48:00,
2014-01-02 03:49:00,34.1,31.7,30.08,SW,232,0.0,0.0,91,0.00,,,0.00,Wunderground v.1.15,2014-01-02 08:49:00,
2014-01-02 03:51:00,34.1,31.7,30.08,SW,232,0.0,0.0,91,0.00,,,0.00,Wunderground v.1.15,2014-01-02 08:51:00,
2014-01-02 03:52:00,34.1,31.7,30.08,SW,232,0.0,0.0,91,0.00,,,0.00,Wunderground v.1.15,2014-01-02 08:52:00,
2014-01-02 03:54:00,34.1,31.7,30.08,SW,232,0.0,0.0,91,0.00,,,0.00,Wunderground v.1.15,2014-01-02 08:54:00,
2014-01-02 03:56:00,34.0,31.6,30.08,SW,233,0.0,0.0,91,0.00,,,0.00,Wunderground v.1.15,2014-01-02 08:56:00,
2014-01-02 03:57:00,34.0,31.6,30.08,SW,232,0.0,0.0,91,0.00,,,0.00,Wunderground v.1.15,2014-01-02 08:57:00,
2014-01-02 03:58:00,34.0,31.6,30.07,SW,232,0.0,0.0,91,0.00,,,0.00,Wunderground v.1.15,2014-01-02 08:58:00,
2014-01-02 03:59:00,34.0,31.6,30.07,SW,232,0.0,0.0,91,0.00,,,0.00,Wunderground v.1.15,2014-01-02 08:59:00,
2014-01-02 04:00:00,34.0,31.6,30.07,SW,232,0.0,0.0,91,0.00,,,0.00,Wunderground v.1.15,2014-01-02 09:00:00,
2014-01-02 04:02:00,34.0,31.6,30.07,SW,231,0.0,0.0,91,0.00,,,0.00,Wunderground v.1.15,2014-01-02 09:02:00,
2014-01-02 04:03:00,34.0,31.6,30.07,SW,232,0.0,0.0,91,0.00,,,0.00,Wunderground v.1.15,2014-01-02 09:03:00,
2014-01-02 04:04:00,34.1,31.7,30.07,SW,232,0.0,0.0,91,0.00,,,0.00,Wunderground v.1.15,2014-01-02 09:04:00,
2014-01-02 04:05:00,34.1,31.7,30.07,SW,232,0.0,0.0,91,0.00,,,0.00,Wunderground v.1.15,2014-01-02 09:05:00,
2014-01-02 04:07:00,34.1,31.7,30.07,SW,233,0.0,0.0,91,0.00,,,0.00,Wunderground v.1.15,2014-01-02 09:07:00,
2014-01-02 04:08:00,34.1,31.7,30.07,SW,232,0.0,0.0,91,0.00,,,0.00,Wunderground v.1.15,2014-01-02 09:08:00,
2014-01-02 04:10:00,34.1,31.7,30.07,SW,232,0.0,0.0,91,0.00,,,0.00,Wunderground v.1.15,2014-01-02 09:10:00,
2014-01-02 04:11:00,34.2,31.8,30.07,SW,232,0.0,0.0,91,0.00,,,0.00,Wunderground v.1.15,2014-01-02 09:11:00,
2014-01-02 04:12:00,34.2,31.8,30.07,SW,232,0.0,0.0,91,0.00,,,0.00,Wunderground v.1.15,2014-01-02 09:12:00,
2014-01-02 04:13:00,34.2,31.8,30.07,SW,232,0.0,0.0,91,0.00,,,0.00,Wunderground v.1.15,2014-01-02 09:13:00,
2014-01-02 04:15:00,34.2,31.8,30.07,SW,232,0.0,0.0,91,0.00,,,0.00,Wunderground v.1.15,2014-01-02 09:15:00,
2014-01-02 04:16:00,34.2,31.8,30.07,SW,232,0.0,0.0,91,0.00,,,0.00,Wunderground v.1.15,2014-01-02 09:16:00,
2014-01-02 04:17:00,34.2,31.6,30.07,SW,232,0.0,0.0,90,0.00,,,0.00,Wunderground v.1.15,2014-01-02 09:17:00,
2014-01-02 04:18:00,34.2,31.6,30.07,SW,232,0.0,0.0,90,0.00,,,0.00,Wunderground v.1.15,2014-01-02 09:18:00,
2014-01-02 04:20:00,34.1,31.5,30.06,SW,232,0.0,0.0,90,0.00,,,0.00,Wunderground v.1.15,2014-01-02 09:20:00,
2014-01-02 04:21:00,34.1,31.5,30.06,SW,232,0.0,0.0,90,0.00,,,0.00,Wunderground v.1.15,2014-01-02 09:21:00,
2014-01-02 04:22:00,34.0,31.4,30.06,SW,232,0.0,0.0,90,0.00,,,0.00,Wunderground v.1.15,2014-01-02 09:22:00,
2014-01-02 04:23:00,34.0,31.4,30.06,SW,232,0.0,0.0,90,0.00,,,0.00,Wunderground v.1.15,2014-01-02 09:23:00,
2014-01-02 04:24:00,33.9,31.6,30.05,SW,232,0.0,0.0,91,0.00,,,0.00,Wunderground v.1.15,2014-01-02 09:24:00,
2014-01-02 04:25:00,33.9,31.6,30.05,SW,233,0.0,0.0,91,0.00,,,0.00,Wunderground v.1.15,2014-01-02 09:25:00,
2014-01-02 04:27:00,33.9,31.6,30.05,SW,232,0.0,0.0,91,0.00,,,0.00,Wunderground v.1.15,2014-01-02 09:27:00,
2014-01-02 04:28:00,33.9,31.6,30.05,SW,232,0.0,0.0,91,0.00,,,0.00,Wunderground v.1.15,2014-01-02 09:28:00,
2014-01-02 04:29:00,33.9,31.6,30.06,SW,232,0.0,0.0,91,0.00,,,0.00,Wunderground v.1.15,2014-01-02 09:29:00,
2014-01-02 04:31:00,33.8,31.5,30.06,SW,232,0.0,0.0,91,0.00,,,0.00,Wunderground v.1.15,2014-01-02 09:31:00,
2014-01-02 04:32:00,33.8,31.5,30.06,SW,232,0.0,0.0,91,0.00,,,0.00,Wunderground v.1.15,2014-01-02 09:32:00,
2014-01-02 04:33:00,33.8,31.5,30.05,SW,232,0.0,0.0,91,0.00,,,0.00,Wunderground v.1.15,2014-01-02 09:33:00,
2014-01-02 04:34:00,33.7,31.4,30.05,SW,232,0.0,0.0,91,0.00,,,0.00,Wunderground v.1.15,2014-01-02 09:34:00,
2014-01-02 04:35:00,33.7,31.4,30.05,SW,232,0.0,0.0,91,0.00,,,0.00,Wunderground v.1.15,2014-01-02 09:35:00,
2014-01-02 04:36:00,33.7,31.4,30.05,SW,232,0.0,0.0,91,0.00,,,0.00,Wunderground v.1.15,2014-01-02 09:36:00,
2014-01-02 04:37:00,33.7,31.4,30.05,SW,232,0.0,0.0,91,0.00,,,0.00,Wunderground v.1.15,2014-01-02 09:37:00,
2014-01-02 04:38:00,33.6,31.3,30.05,SW,232,0.0,0.0,91,0.00,,,0.00,Wunderground v.1.15,2014-01-02 09:38:00,
2014-01-02 04:40:00,33.6,31.3,30.05,SW,232,0.0,0.0,91,0.00,,,0.00,Wunderground v.1.15,2014-01-02 09:40:00,
2014-01-02 04:43:00,33.5,31.2,30.04,SW,232,0.0,0.0,91,0.00,,,0.00,Wunderground v.1.15,2014-01-02 09:43:00,
2014-01-02 04:44:00,33.5,31.2,30.04,SW,232,0.0,0.0,91,0.00,,,0.00,Wunderground v.1.15,2014-01-02 09:44:00,
2014-01-02 04:45:00,33.5,31.2,30.04,SW,232,0.0,0.0,91,0.00,,,0.00,Wunderground v.1.15,2014-01-02 09:45:00,
2014-01-02 04:48:00,33.4,31.1,30.04,SW,232,0.0,0.0,91,0.00,,,0.00,Wunderground v.1.15,2014-01-02 09:48:00,
2014-01-02 04:49:00,33.4,31.1,30.04,SW,232,0.0,0.0,91,0.00,,,0.00,Wunderground v.1.15,2014-01-02 09:49:00,
2014-01-02 04:50:00,33.4,31.3,30.04,SW,232,0.0,0.0,92,0.00,,,0.00,Wunderground v.1.15,2014-01-02 09:50:00,
2014-01-02 04:53:00,33.4,31.3,30.04,SW,232,0.0,0.0,92,0.00,,,0.00,Wunderground v.1.15,2014-01-02 09:53:00,
2014-01-02 04:54:00,33.5,31.4,30.04,SW,232,0.0,0.0,92,0.00,,,0.00,Wunderground v.1.15,2014-01-02 09:54:00,
2014-01-02 04:55:00,33.4,31.3,30.04,SW,232,0.0,0.0,92,0.00,,,0.00,Wunderground v.1.15,2014-01-02 09:55:00,
2014-01-02 04:56:00,33.4,31.3,30.04,SW,232,0.0,0.0,92,0.00,,,0.00,Wunderground v.1.15,2014-01-02 09:56:00,
2014-01-02 04:59:00,33.4,31.3,30.04,SW,232,0.0,0.0,92,0.00,,,0.00,Wunderground v.1.15,2014-01-02 09:59:00,
2014-01-02 05:00:00,33.4,31.3,30.04,SW,232,0.0,0.0,92,0.00,,,0.00,Wunderground v.1.15,2014-01-02 10:00:00,
2014-01-02 05:01:00,33.4,31.3,30.04,SW,232,0.0,0.0,92,0.00,,,0.00,Wunderground v.1.15,2014-01-02 10:01:00,
2014-01-02 05:04:00,33.4,31.3,30.04,SW,232,0.0,0.0,92,0.00,,,0.00,Wunderground v.1.15,2014-01-02 10:04:00,
2014-01-02 05:05:00,33.4,31.3,30.04,SW,232,0.0,0.0,92,0.00,,,0.00,Wunderground v.1.15,2014-01-02 10:05:00,
2014-01-02 05:07:00,33.4,31.3,30.04,SW,232,0.0,0.0,92,0.00,,,0.00,Wunderground v.1.15,2014-01-02 10:07:00,
2014-01-02 05:09:00,33.5,31.4,30.05,SW,232,0.0,0.0,92,0.00,,,0.00,Wunderground v.1.15,2014-01-02 10:09:00,
2014-01-02 05:10:00,33.4,31.3,30.04,SW,232,0.0,0.0,92,0.00,,,0.00,Wunderground v.1.15,2014-01-02 10:10:00,
2014-01-02 05:11:00,33.4,31.3,30.04,SW,232,0.0,0.0,92,0.00,,,0.00,Wunderground v.1.15,2014-01-02 10:11:00,
2014-01-02 05:12:00,33.4,31.3,30.04,SW,232,0.0,0.0,92,0.00,,,0.00,Wunderground v.1.15,2014-01-02 10:12:00,
2014-01-02 05:14:00,33.4,31.3,30.04,SW,232,0.0,0.0,92,0.00,,,0.00,Wunderground v.1.15,2014-01-02 10:14:00,
2014-01-02 05:15:00,33.4,31.3,30.04,SW,232,0.0,0.0,92,0.00,,,0.00,Wunderground v.1.15,2014-01-02 10:15:00,
2014-01-02 05:16:00,33.4,31.3,30.04,SW,232,0.0,0.0,92,0.00,,,0.00,Wunderground v.1.15,2014-01-02 10:16:00,
2014-01-02 05:17:00,33.4,31.3,30.04,SW,232,0.0,0.0,92,0.00,,,0.00,Wunderground v.1.15,2014-01-02 10:17:00,
2014-01-02 05:19:00,33.4,31.3,30.04,SW,232,0.0,0.0,92,0.00,,,0.00,Wunderground v.1.15,2014-01-02 10:19:00,
2014-01-02 05:20:00,33.3,31.2,30.04,SW,232,0.0,0.0,92,0.00,,,0.00,Wunderground v.1.15,2014-01-02 10:20:00,
2014-01-02 05:21:00,33.3,31.2,30.04,SW,232,0.0,0.0,92,0.00,,,0.00,Wunderground v.1.15,2014-01-02 10:21:00,
2014-01-02 05:22:00,33.3,31.2,30.04,SW,232,0.0,0.0,92,0.00,,,0.00,Wunderground v.1.15,2014-01-02 10:22:00,
2014-01-02 05:24:00,33.3,31.2,30.03,SW,232,0.0,0.0,92,0.00,,,0.00,Wunderground v.1.15,2014-01-02 10:24:00,
2014-01-02 05:25:00,33.2,31.1,30.03,SW,232,0.0,0.0,92,0.00,,,0.00,Wunderground v.1.15,2014-01-02 10:25:00,
2014-01-02 05:26:00,33.3,31.2,30.03,SW,232,0.0,0.0,92,0.00,,,0.00,Wunderground v.1.15,2014-01-02 10:26:00,
2014-01-02 05:27:00,33.2,31.1,30.03,SW,232,0.0,0.0,92,0.00,,,0.00,Wunderground v.1.15,2014-01-02 10:27:00,
2014-01-02 05:30:00,33.2,31.1,30.04,SW,232,0.0,0.0,92,0.00,,,0.00,Wunderground v.1.15,2014-01-02 10:30:00,
2014-01-02 05:31:00,33.2,31.1,30.04,SW,232,0.0,0.0,92,0.00,,,0.00,Wunderground v.1.15,2014-01-02 10:31:00,
2014-01-02 05:32:00,33.2,31.1,30.04,SW,232,0.0,0.0,92,0.00,,,0.00,Wunderground v.1.15,2014-01-02 10:32:00,
2014-01-02 05:33:00,33.2,31.1,30.03,SW,232,0.0,0.0,92,0.00,,,0.00,Wunderground v.1.15,2014-01-02 10:33:00,
2014-01-02 05:35:00,33.1,31.0,30.03,SW,232,0.0,0.0,92,0.00,,,0.00,Wunderground v.1.15,2014-01-02 10:35:00,
2014-01-02 05:36:00,33.1,31.0,30.03,SW,232,0.0,0.0,92,0.00,,,0.00,Wunderground v.1.15,2014-01-02 10:36:00,
2014-01-02 05:37:00,33.1,31.0,30.03,SW,232,0.0,0.0,92,0.00,,,0.00,Wunderground v.1.15,2014-01-02 10:37:00,
2014-01-02 05:38:00,33.1,31.0,30.04,SW,232,0.0,0.0,92,0.00,,,0.00,Wunderground v.1.15,2014-01-02 10:38:00,
2014-01-02 05:40:00,33.1,31.0,30.04,SW,232,0.0,0.0,92,0.00,,,0.00,Wunderground v.1.15,2014-01-02 10:40:00,
2014-01-02 05:41:00,33.1,31.0,30.03,SW,232,0.0,0.0,92,0.00,,,0.00,Wunderground v.1.15,2014-01-02 10:41:00,
2014-01-02 05:43:00,33.1,31.0,30.04,SW,232,0.0,0.0,92,0.00,,,0.00,Wunderground v.1.15,2014-01-02 10:43:00,
2014-01-02 05:44:00,33.1,31.0,30.04,SW,232,0.0,0.0,92,0.00,,,0.00,Wunderground v.1.15,2014-01-02 10:44:00,
2014-01-02 05:45:00,33.1,31.3,30.04,SW,232,0.0,0.0,93,0.00,,,0.00,Wunderground v.1.15,2014-01-02 10:45:00,
2014-01-02 05:46:00,33.1,31.3,30.04,SW,232,0.0,0.0,93,0.00,,,0.00,Wunderground v.1.15,2014-01-02 10:46:00,
2014-01-02 05:48:00,33.1,31.3,30.03,SW,232,0.0,0.0,93,0.00,,,0.00,Wunderground v.1.15,2014-01-02 10:48:00,
2014-01-02 05:49:00,33.0,31.2,30.03,SW,232,0.0,0.0,93,0.00,,,0.00,Wunderground v.1.15,2014-01-02 10:49:00,
2014-01-02 05:50:00,33.0,31.2,30.03,SW,232,0.0,0.0,93,0.00,,,0.00,Wunderground v.1.15,2014-01-02 10:50:00,
2014-01-02 05:51:00,33.0,31.2,30.03,SW,232,0.0,0.0,93,0.00,,,0.00,Wunderground v.1.15,2014-01-02 10:51:00,
2014-01-02 05:52:00,33.0,31.2,30.03,SW,232,0.0,0.0,93,0.00,,,0.00,Wunderground v.1.15,2014-01-02 10:52:00,
2014-01-02 05:53:00,33.0,31.2,30.03,SW,232,0.0,0.0,93,0.00,,,0.00,Wunderground v.1.15,2014-01-02 10:53:00,
2014-01-02 05:55:00,33.0,31.2,30.03,SW,232,0.0,0.0,93,0.00,,,0.00,Wunderground v.1.15,2014-01-02 10:55:00,
2014-01-02 05:56:00,33.0,31.2,30.03,SW,232,0.0,0.0,93,0.00,,,0.00,Wunderground v.1.15,2014-01-02 10:56:00,
2014-01-02 05:57:00,33.0,31.2,30.03,SW,232,0.0,0.0,93,0.00,,,0.00,Wunderground v.1.15,2014-01-02 10:57:00,
2014-01-02 05:58:00,32.9,31.1,30.03,SW,232,0.0,0.0,93,0.00,,,0.00,Wunderground v.1.15,2014-01-02 10:58:00,
2014-01-02 06:00:00,32.9,31.1,30.03,SW,232,0.0,0.0,93,0.00,,,0.00,Wunderground v.1.15,2014-01-02 11:00:00,
2014-01-02 06:01:00,32.9,31.1,30.03,SW,232,0.0,0.0,93,0.00,,,0.00,Wunderground v.1.15,2014-01-02 11:01:00,
2014-01-02 06:02:00,32.9,31.1,30.02,SW,232,0.0,0.0,93,0.00,,,0.00,Wunderground v.1.15,2014-01-02 11:02:00,
2014-01-02 06:03:00,32.9,31.1,30.02,SW,232,0.0,0.0,93,0.00,,,0.00,Wunderground v.1.15,2014-01-02 11:03:00,
2014-01-02 06:04:00,32.9,31.1,30.02,SW,232,0.0,0.0,93,0.00,,,0.00,Wunderground v.1.15,2014-01-02 11:04:00,
2014-01-02 06:05:00,32.9,31.1,30.02,SW,232,0.0,0.0,93,0.00,,,0.00,Wunderground v.1.15,2014-01-02 11:05:00,
2014-01-02 06:06:00,32.9,31.1,30.02,SW,232,0.0,0.0,93,0.00,,,0.00,Wunderground v.1.15,2014-01-02 11:06:00,
2014-01-02 06:08:00,32.9,31.1,30.02,SW,232,0.0,0.0,93,0.00,,,0.00,Wunderground v.1.15,2014-01-02 11:08:00,
2014-01-02 06:09:00,32.9,31.1,30.02,SW,232,0.0,0.0,93,0.00,,,0.00,Wunderground v.1.15,2014-01-02 11:09:00,
2014-01-02 06:10:00,33.0,31.2,30.01,SW,233,0.0,0.0,93,0.00,,,0.00,Wunderground v.1.15,2014-01-02 11:10:00,
2014-01-02 06:11:00,33.0,31.2,30.01,SW,232,0.0,0.0,93,0.00,,,0.00,Wunderground v.1.15,2014-01-02 11:11:00,
2014-01-02 06:13:00,33.0,31.2,30.01,SW,232,0.0,0.0,93,0.00,,,0.00,Wunderground v.1.15,2014-01-02 11:13:00,
2014-01-02 06:14:00,33.0,31.2,30.01,SW,232,0.0,0.0,93,0.00,,,0.00,Wunderground v.1.15,2014-01-02 11:14:00,
2014-01-02 06:15:00,33.0,31.2,30.01,SW,232,0.0,0.0,93,0.00,,,0.00,Wunderground v.1.15,2014-01-02 11:15:00,
2014-01-02 06:16:00,33.0,31.2,30.01,SW,232,0.0,0.0,93,0.00,,,0.00,Wunderground v.1.15,2014-01-02 11:16:00,
2014-01-02 06:19:00,33.0,31.2,30.02,SW,233,0.0,0.0,93,0.00,,,0.00,Wunderground v.1.15,2014-01-02 11:19:00,
2014-01-02 06:20:00,33.0,31.2,30.02,SW,232,0.0,0.0,93,0.00,,,0.00,Wunderground v.1.15,2014-01-02 11:20:00,
2014-01-02 06:21:00,32.9,31.1,30.02,SW,232,0.0,0.0,93,0.00,,,0.00,Wunderground v.1.15,2014-01-02 11:21:00,
2014-01-02 06:22:00,32.9,31.1,30.01,SW,232,0.0,0.0,93,0.00,,,0.00,Wunderground v.1.15,2014-01-02 11:22:00,
2014-01-02 06:24:00,32.9,31.1,30.01,SW,231,0.0,0.0,93,0.00,,,0.00,Wunderground v.1.15,2014-01-02 11:24:00,
2014-01-02 06:25:00,32.8,31.0,30.01,SW,232,0.0,0.0,93,0.00,,,0.00,Wunderground v.1.15,2014-01-02 11:25:00,
2014-01-02 06:26:00,32.8,31.0,30.01,SW,232,0.0,0.0,93,0.00,,,0.00,Wunderground v.1.15,2014-01-02 11:26:00,
2014-01-02 06:27:00,32.8,31.0,30.00,SW,232,0.0,0.0,93,0.00,,,0.00,Wunderground v.1.15,2014-01-02 11:27:00,
2014-01-02 06:30:00,32.8,31.0,30.01,SW,232,0.0,0.0,93,0.00,,,0.00,Wunderground v.1.15,2014-01-02 11:30:00,
2014-01-02 06:31:00,32.7,30.9,30.00,SW,232,0.0,0.0,93,0.00,,,0.00,Wunderground v.1.15,2014-01-02 11:31:00,
2014-01-02 06:33:00,32.7,30.9,30.00,SW,233,0.0,0.0,93,0.00,,,0.00,Wunderground v.1.15,2014-01-02 11:33:00,
2014-01-02 06:35:00,32.7,30.9,30.00,SW,232,0.0,0.0,93,0.00,,,0.00,Wunderground v.1.15,2014-01-02 11:35:00,
2014-01-02 06:36:00,32.7,30.9,30.00,SW,232,0.0,0.0,93,0.00,,,0.00,Wunderground v.1.15,2014-01-02 11:36:00,
2014-01-02 06:38:00,32.8,31.0,30.00,SW,232,0.0,0.0,93,0.00,,,0.00,Wunderground v.1.15,2014-01-02 11:38:00,
2014-01-02 06:40:00,32.8,31.3,30.00,SW,232,0.0,0.0,94,0.00,,,0.00,Wunderground v.1.15,2014-01-02 11:40:00,
2014-01-02 06:41:00,32.9,31.4,30.00,SW,232,0.0,0.0,94,0.00,,,0.00,Wunderground v.1.15,2014-01-02 11:41:00,
2014-01-02 06:43:00,32.9,31.4,30.00,SW,232,0.0,0.0,94,0.00,,,0.00,Wunderground v.1.15,2014-01-02 11:43:00,
2014-01-02 06:45:00,32.9,31.4,29.99,SW,232,0.0,0.0,94,0.00,,,0.00,Wunderground v.1.15,2014-01-02 11:45:00,
2014-01-02 06:46:00,32.9,31.4,29.99,SW,232,0.0,0.0,94,0.00,,,0.00,Wunderground v.1.15,2014-01-02 11:46:00,
2014-01-02 06:49:00,32.9,31.4,29.99,SW,232,0.0,0.0,94,0.00,,,0.00,Wunderground v.1.15,2014-01-02 11:49:00,
2014-01-02 06:51:00,32.9,31.4,29.99,SW,232,0.0,0.0,94,0.00,,,0.00,Wunderground v.1.15,2014-01-02 11:51:00,
2014-01-02 06:52:00,32.9,31.4,29.99,SW,232,0.0,0.0,94,0.00,,,0.00,Wunderground v.1.15,2014-01-02 11:52:00,
2014-01-02 06:54:00,32.9,31.4,29.99,SW,232,0.0,0.0,94,0.00,,,0.00,Wunderground v.1.15,2014-01-02 11:54:00,
2014-01-02 06:56:00,32.9,31.4,29.99,SW,232,0.0,0.0,94,0.00,,,0.00,Wunderground v.1.15,2014-01-02 11:56:00,
2014-01-02 06:57:00,32.9,31.4,29.99,SW,232,0.0,0.0,94,0.00,,,0.00,Wunderground v.1.15,2014-01-02 11:57:00,
2014-01-02 06:58:00,32.9,31.4,29.99,SW,232,0.0,0.0,94,0.00,,,0.00,Wunderground v.1.15,2014-01-02 11:58:00,
2014-01-02 06:59:00,32.9,31.4,29.99,SW,232,0.0,0.0,94,0.00,,,0.00,Wunderground v.1.15,2014-01-02 11:59:00,
2014-01-02 07:01:00,32.9,31.4,29.99,SW,232,0.0,0.0,94,0.00,,,0.00,Wunderground v.1.15,2014-01-02 12:01:00,
2014-01-02 07:02:00,32.9,31.4,29.99,SW,232,0.0,0.0,94,0.00,,,0.00,Wunderground v.1.15,2014-01-02 12:02:00,
2014-01-02 07:03:00,32.9,31.4,29.99,SW,233,0.0,0.0,94,0.00,,,0.00,Wunderground v.1.15,2014-01-02 12:03:00,
2014-01-02 07:04:00,32.9,31.4,29.99,SW,232,0.0,0.0,94,0.00,,,0.00,Wunderground v.1.15,2014-01-02 12:04:00,
2014-01-02 07:06:00,32.9,31.4,29.99,SW,232,0.0,0.0,94,0.00,,,0.00,Wunderground v.1.15,2014-01-02 12:06:00,
2014-01-02 07:07:00,32.9,31.4,29.99,SW,233,0.0,0.0,94,0.00,,,0.00,Wunderground v.1.15,2014-01-02 12:07:00,
2014-01-02 07:08:00,32.9,31.4,29.99,SW,232,0.0,0.0,94,0.00,,,0.00,Wunderground v.1.15,2014-01-02 12:08:00,
2014-01-02 07:09:00,32.9,31.4,29.99,SW,232,0.0,0.0,94,0.00,,,0.00,Wunderground v.1.15,2014-01-02 12:09:00,
2014-01-02 07:11:00,32.8,31.3,29.99,SW,232,0.0,0.0,94,0.00,,,0.00,Wunderground v.1.15,2014-01-02 12:11:00,
2014-01-02 07:12:00,32.8,31.3,29.99,SW,232,0.0,0.0,94,0.00,,,0.00,Wunderground v.1.15,2014-01-02 12:12:00,
2014-01-02 07:15:00,32.8,31.3,29.99,SW,232,0.0,0.0,94,0.00,,,0.00,Wunderground v.1.15,2014-01-02 12:15:00,
2014-01-02 07:17:00,32.8,31.3,29.99,SW,232,0.0,0.0,94,0.00,,,0.00,Wunderground v.1.15,2014-01-02 12:17:00,
2014-01-02 07:18:00,32.8,31.3,29.99,SW,232,0.0,0.0,94,0.00,,,0.00,Wunderground v.1.15,2014-01-02 12:18:00,
2014-01-02 07:20:00,32.8,31.3,29.99,SW,233,0.0,0.0,94,0.00,,,0.00,Wunderground v.1.15,2014-01-02 12:20:00,
2014-01-02 07:22:00,32.7,31.2,29.99,SW,232,0.0,0.0,94,0.00,,,0.00,Wunderground v.1.15,2014-01-02 12:22:00,
2014-01-02 07:24:00,32.7,31.2,29.99,SW,232,0.0,0.0,94,0.00,,,0.00,Wunderground v.1.15,2014-01-02 12:24:00,
2014-01-02 07:25:00,32.7,31.2,29.99,SW,232,0.0,0.0,94,0.00,,,0.00,Wunderground v.1.15,2014-01-02 12:25:00,
2014-01-02 07:27:00,32.6,31.1,29.98,SW,232,0.0,0.0,94,0.00,,,0.00,Wunderground v.1.15,2014-01-02 12:27:00,
2014-01-02 07:29:00,32.6,31.1,29.98,SW,232,0.0,0.0,94,0.00,,,0.00,Wunderground v.1.15,2014-01-02 12:29:00,
2014-01-02 07:30:00,32.6,31.1,29.97,SW,232,0.0,0.0,94,0.00,,,0.00,Wunderground v.1.15,2014-01-02 12:30:00,
2014-01-02 07:32:00,32.5,31.0,29.97,SW,232,0.0,0.0,94,0.00,,,0.00,Wunderground v.1.15,2014-01-02 12:32:00,
2014-01-02 07:34:00,32.5,31.0,29.98,SW,232,0.0,0.0,94,0.00,,,0.00,Wunderground v.1.15,2014-01-02 12:34:00,
2014-01-02 07:35:00,32.5,31.0,29.98,SW,232,0.0,0.0,94,0.00,,,0.00,Wunderground v.1.15,2014-01-02 12:35:00,
2014-01-02 07:36:00,32.5,31.0,29.98,SW,232,0.0,0.0,94,0.00,,,0.00,Wunderground v.1.15,2014-01-02 12:36:00,
2014-01-02 07:37:00,32.5,31.0,29.98,SW,233,0.0,0.0,94,0.00,,,0.00,Wunderground v.1.15,2014-01-02 12:37:00,
2014-01-02 07:39:00,32.5,31.0,29.98,SW,232,0.0,0.0,94,0.00,,,0.00,Wunderground v.1.15,2014-01-02 12:39:00,
2014-01-02 07:40:00,32.5,31.0,29.98,SW,232,0.0,0.0,94,0.00,,,0.00,Wunderground v.1.15,2014-01-02 12:40:00,
2014-01-02 07:42:00,32.5,31.0,29.98,SW,232,0.0,0.0,94,0.00,,,0.00,Wunderground v.1.15,2014-01-02 12:42:00,
2014-01-02 07:43:00,32.5,31.0,29.98,SW,232,0.0,0.0,94,0.00,,,0.00,Wunderground v.1.15,2014-01-02 12:43:00,
2014-01-02 07:45:00,32.5,31.0,29.97,SW,232,0.0,0.0,94,0.00,,,0.00,Wunderground v.1.15,2014-01-02 12:45:00,
2014-01-02 07:46:00,32.5,31.0,29.97,SW,232,0.0,0.0,94,0.00,,,0.00,Wunderground v.1.15,2014-01-02 12:46:00,
2014-01-02 07:47:00,32.5,31.0,29.98,SW,231,0.0,0.0,94,0.00,,,0.00,Wunderground v.1.15,2014-01-02 12:47:00,
2014-01-02 07:48:00,32.5,31.0,29.98,SW,232,0.0,0.0,94,0.00,,,0.00,Wunderground v.1.15,2014-01-02 12:48:00,
2014-01-02 07:50:00,32.4,30.9,29.98,SW,232,0.0,0.0,94,0.00,,,0.00,Wunderground v.1.15,2014-01-02 12:50:00,
2014-01-02 07:51:00,32.4,30.9,29.98,SW,232,0.0,0.0,94,0.00,,,0.00,Wunderground v.1.15,2014-01-02 12:51:00,
2014-01-02 07:52:00,32.4,30.9,29.97,SW,232,0.0,0.0,94,0.00,,,0.00,Wunderground v.1.15,2014-01-02 12:52:00,
2014-01-02 07:53:00,32.4,30.9,29.97,SW,232,0.0,0.0,94,0.00,,,0.00,Wunderground v.1.15,2014-01-02 12:53:00,
2014-01-02 07:55:00,32.5,31.0,29.97,SW,232,0.0,0.0,94,0.00,,,0.00,Wunderground v.1.15,2014-01-02 12:55:00,
2014-01-02 07:56:00,32.5,31.0,29.97,SW,232,0.0,0.0,94,0.00,,,0.00,Wunderground v.1.15,2014-01-02 12:56:00,
2014-01-02 07:58:00,32.5,31.0,29.97,SW,232,0.0,0.0,94,0.00,,,0.00,Wunderground v.1.15,2014-01-02 12:58:00,
2014-01-02 08:01:00,32.6,31.1,29.97,SW,232,0.0,0.0,94,0.00,,,0.00,Wunderground v.1.15,2014-01-02 13:01:00,
2014-01-02 08:03:00,32.6,31.3,29.97,SW,232,0.0,0.0,95,0.00,,,0.00,Wunderground v.1.15,2014-01-02 13:03:00,
2014-01-02 08:04:00,32.6,31.3,29.97,SW,232,0.0,0.0,95,0.00,,,0.00,Wunderground v.1.15,2014-01-02 13:04:00,
2014-01-02 08:06:00,32.6,31.3,29.97,SW,232,0.0,0.0,95,0.00,,,0.00,Wunderground v.1.15,2014-01-02 13:06:00,
2014-01-02 08:07:00,32.6,31.3,29.97,SW,232,0.0,0.0,95,0.00,,,0.00,Wunderground v.1.15,2014-01-02 13:07:00,
2014-01-02 08:08:00,32.7,31.4,29.97,SW,233,0.0,0.0,95,0.00,,,0.00,Wunderground v.1.15,2014-01-02 13:08:00,
2014-01-02 08:09:00,32.7,31.4,29.97,SW,232,0.0,0.0,95,0.00,,,0.00,Wunderground v.1.15,2014-01-02 13:09:00,
2014-01-02 08:12:00,32.7,31.4,29.97,SW,232,0.0,0.0,95,0.00,,,0.00,Wunderground v.1.15,2014-01-02 13:12:00,
2014-01-02 08:14:00,32.8,31.5,29.97,SW,232,0.0,0.0,95,0.00,,,0.00,Wunderground v.1.15,2014-01-02 13:14:00,
2014-01-02 08:15:00,32.8,31.5,29.97,SW,232,0.0,0.0,95,0.00,,,0.00,Wunderground v.1.15,2014-01-02 13:15:00,
2014-01-02 08:17:00,32.8,31.5,29.97,SW,232,0.0,0.0,95,0.00,,,0.00,Wunderground v.1.15,2014-01-02 13:17:00,
2014-01-02 08:19:00,32.9,31.6,29.97,SW,231,0.0,0.0,95,0.00,,,0.00,Wunderground v.1.15,2014-01-02 13:19:00,
2014-01-02 08:20:00,32.9,31.6,29.97,SW,232,0.0,0.0,95,0.00,,,0.00,Wunderground v.1.15,2014-01-02 13:20:00,
2014-01-02 08:21:00,32.9,31.6,29.97,SW,232,0.0,0.0,95,0.00,,,0.00,Wunderground v.1.15,2014-01-02 13:21:00,
2014-01-02 08:22:00,33.0,31.7,29.97,SW,232,0.0,0.0,95,0.00,,,0.00,Wunderground v.1.15,2014-01-02 13:22:00,
2014-01-02 08:23:00,33.0,31.7,29.97,SW,232,0.0,0.0,95,0.00,,,0.00,Wunderground v.1.15,2014-01-02 13:23:00,
2014-01-02 08:24:00,33.1,31.8,29.97,SW,232,0.0,0.0,95,0.00,,,0.00,Wunderground v.1.15,2014-01-02 13:24:00,
2014-01-02 08:25:00,33.1,31.8,29.97,SW,232,0.0,0.0,95,0.00,,,0.00,Wunderground v.1.15,2014-01-02 13:25:00,
2014-01-02 08:27:00,33.2,31.9,29.97,SW,232,0.0,0.0,95,0.00,,,0.00,Wunderground v.1.15,2014-01-02 13:27:00,
2014-01-02 08:28:00,33.3,32.0,29.97,SW,232,0.0,0.0,95,0.00,,,0.00,Wunderground v.1.15,2014-01-02 13:28:00,
2014-01-02 08:29:00,33.3,32.0,29.97,SW,232,0.0,0.0,95,0.00,,,0.00,Wunderground v.1.15,2014-01-02 13:29:00,
2014-01-02 08:30:00,33.3,32.0,29.97,SW,232,0.0,0.0,95,0.00,,,0.00,Wunderground v.1.15,2014-01-02 13:30:00,
2014-01-02 08:32:00,33.4,32.1,29.97,SW,233,0.0,0.0,95,0.00,,,0.00,Wunderground v.1.15,2014-01-02 13:32:00,
2014-01-02 08:34:00,33.5,32.2,29.96,SW,232,0.0,0.0,95,0.00,,,0.00,Wunderground v.1.15,2014-01-02 13:34:00,
2014-01-02 08:35:00,33.6,32.3,29.97,SW,232,0.0,0.0,95,0.00,,,0.00,Wunderground v.1.15,2014-01-02 13:35:00,
2014-01-02 08:37:00,33.7,32.4,29.97,SW,232,0.0,0.0,95,0.00,,,0.00,Wunderground v.1.15,2014-01-02 13:37:00,
2014-01-02 08:39:00,33.8,32.5,29.97,SW,232,0.0,0.0,95,0.00,,,0.00,Wunderground v.1.15,2014-01-02 13:39:00,
2014-01-02 08:40:00,33.9,32.6,29.97,SW,232,0.0,0.0,95,0.00,,,0.00,Wunderground v.1.15,2014-01-02 13:40:00,
2014-01-02 08:42:00,34.0,32.7,29.97,SW,232,0.0,0.0,95,0.00,,,0.00,Wunderground v.1.15,2014-01-02 13:42:00,
2014-01-02 08:43:00,34.1,32.8,29.97,SW,232,0.0,0.0,95,0.00,,,0.00,Wunderground v.1.15,2014-01-02 13:43:00,
2014-01-02 08:45:00,34.2,32.9,29.97,SW,232,0.0,0.0,95,0.00,,,0.00,Wunderground v.1.15,2014-01-02 13:45:00,
2014-01-02 08:47:00,34.3,33.0,29.97,SW,232,0.0,0.0,95,0.00,,,0.00,Wunderground v.1.15,2014-01-02 13:47:00,
2014-01-02 08:48:00,34.4,33.1,29.97,SW,232,0.0,0.0,95,0.00,,,0.00,Wunderground v.1.15,2014-01-02 13:48:00,
2014-01-02 08:50:00,34.5,33.2,29.97,SW,232,0.0,0.0,95,0.00,,,0.00,Wunderground v.1.15,2014-01-02 13:50:00,
2014-01-02 08:51:00,34.6,33.3,29.97,SW,232,0.0,0.0,95,0.00,,,0.00,Wunderground v.1.15,2014-01-02 13:51:00,
2014-01-02 08:52:00,34.7,33.4,29.97,SW,232,0.0,0.0,95,0.00,,,0.00,Wunderground v.1.15,2014-01-02 13:52:00,
2014-01-02 08:53:00,34.8,33.2,29.97,SW,232,0.0,0.0,94,0.00,,,0.00,Wunderground v.1.15,2014-01-02 13:53:00,
2014-01-02 08:55:00,34.9,33.3,29.96,SW,232,0.0,0.0,94,0.00,,,0.00,Wunderground v.1.15,2014-01-02 13:55:00,
2014-01-02 08:56:00,35.0,33.4,29.96,SW,232,0.0,0.0,94,0.00,,,0.00,Wunderground v.1.15,2014-01-02 13:56:00,
2014-01-02 08:58:00,35.1,33.5,29.96,SW,233,0.0,0.0,94,0.00,,,0.00,Wunderground v.1.15,2014-01-02 13:58:00,
2014-01-02 08:59:00,35.1,33.5,29.96,SW,232,0.0,0.0,94,0.00,,,0.00,Wunderground v.1.15,2014-01-02 13:59:00,
2014-01-02 09:01:00,35.2,33.6,29.96,SW,232,0.0,0.0,94,0.00,,,0.00,Wunderground v.1.15,2014-01-02 14:01:00,
2014-01-02 09:03:00,35.4,33.6,29.96,SW,232,0.0,0.0,93,0.00,,,0.00,Wunderground v.1.15,2014-01-02 14:03:00,
2014-01-02 09:04:00,35.4,33.6,29.96,SW,232,0.0,0.0,93,0.00,,,0.00,Wunderground v.1.15,2014-01-02 14:04:00,
2014-01-02 09:05:00,35.5,33.7,29.96,SW,232,0.0,0.0,93,0.00,,,0.00,Wunderground v.1.15,2014-01-02 14:05:00,
2014-01-02 09:06:00,35.5,33.7,29.96,SW,232,0.0,0.0,93,0.00,,,0.00,Wunderground v.1.15,2014-01-02 14:06:00,
2014-01-02 09:08:00,35.7,33.9,29.95,SW,232,0.0,0.0,93,0.00,,,0.00,Wunderground v.1.15,2014-01-02 14:08:00,
2014-01-02 09:09:00,35.8,34.0,29.95,SW,232,0.0,0.0,93,0.00,,,0.00,Wunderground v.1.15,2014-01-02 14:09:00,
2014-01-02 09:10:00,35.9,34.1,29.95,SW,232,0.0,0.0,93,0.00,,,0.00,Wunderground v.1.15,2014-01-02 14:10:00,
2014-01-02 09:11:00,35.9,34.1,29.95,SW,232,0.0,0.0,93,0.00,,,0.00,Wunderground v.1.15,2014-01-02 14:11:00,
2014-01-02 09:12:00,36.0,34.2,29.95,SW,232,0.0,0.0,93,0.00,,,0.00,Wunderground v.1.15,2014-01-02 14:12:00,
2014-01-02 09:13:00,36.2,34.4,29.95,SW,232,0.0,0.0,93,0.00,,,0.00,Wunderground v.1.15,2014-01-02 14:13:00,
2014-01-02 09:14:00,36.2,34.4,29.95,SW,232,0.0,0.0,93,0.00,,,0.00,Wunderground v.1.15,2014-01-02 14:14:00,
2014-01-02 09:15:00,36.3,34.5,29.95,SW,232,0.0,0.0,93,0.00,,,0.00,Wunderground v.1.15,2014-01-02 14:15:00,
2014-01-02 09:16:00,36.3,34.5,29.95,SW,232,0.0,0.0,93,0.00,,,0.00,Wunderground v.1.15,2014-01-02 14:16:00,
2014-01-02 09:17:00,36.4,34.6,29.95,SW,232,0.0,0.0,93,0.00,,,0.00,Wunderground v.1.15,2014-01-02 14:17:00,
2014-01-02 09:18:00,36.5,34.4,29.95,SW,232,0.0,0.0,92,0.00,,,0.00,Wunderground v.1.15,2014-01-02 14:18:00,
2014-01-02 09:19:00,36.5,34.4,29.95,SW,232,0.0,0.0,92,0.00,,,0.00,Wunderground v.1.15,2014-01-02 14:19:00,
2014-01-02 09:21:00,36.5,34.4,29.95,SW,232,0.0,0.0,92,0.00,,,0.00,Wunderground v.1.15,2014-01-02 14:21:00,
2014-01-02 09:22:00,36.6,34.2,29.95,SW,232,0.0,0.0,91,0.00,,,0.00,Wunderground v.1.15,2014-01-02 14:22:00,
2014-01-02 09:24:00,36.7,34.3,29.96,SW,232,0.0,0.0,91,0.00,,,0.00,Wunderground v.1.15,2014-01-02 14:24:00,
2014-01-02 09:26:00,36.8,34.4,29.96,SW,232,0.0,0.0,91,0.00,,,0.00,Wunderground v.1.15,2014-01-02 14:26:00,
2014-01-02 09:27:00,36.9,34.5,29.95,SW,232,0.0,0.0,91,0.00,,,0.00,Wunderground v.1.15,2014-01-02 14:27:00,
2014-01-02 09:29:00,37.0,34.6,29.95,SW,232,0.0,0.0,91,0.00,,,0.00,Wunderground v.1.15,2014-01-02 14:29:00,
2014-01-02 09:30:00,37.0,34.6,29.95,SW,232,0.0,0.0,91,0.00,,,0.00,Wunderground v.1.15,2014-01-02 14:30:00,
2014-01-02 09:31:00,37.1,34.7,29.95,SW,232,0.0,0.0,91,0.00,,,0.00,Wunderground v.1.15,2014-01-02 14:31:00,
2014-01-02 09:32:00,37.1,34.7,29.95,SW,232,0.0,0.0,91,0.00,,,0.00,Wunderground v.1.15,2014-01-02 14:32:00,
2014-01-02 09:33:00,37.2,34.8,29.95,SW,232,0.0,0.0,91,0.00,,,0.00,Wunderground v.1.15,2014-01-02 14:33:00,
2014-01-02 09:35:00,37.3,34.9,29.94,SW,232,0.0,0.0,91,0.00,,,0.00,Wunderground v.1.15,2014-01-02 14:35:00,
2014-01-02 09:36:00,37.4,35.0,29.94,SW,232,0.0,0.0,91,0.00,,,0.00,Wunderground v.1.15,2014-01-02 14:36:00,
2014-01-02 09:38:00,37.5,35.1,29.94,SW,232,0.0,0.0,91,0.00,,,0.00,Wunderground v.1.15,2014-01-02 14:38:00,
2014-01-02 09:40:00,37.8,35.4,29.94,SW,231,0.0,0.0,91,0.00,,,0.00,Wunderground v.1.15,2014-01-02 14:40:00,
2014-01-02 09:41:00,37.9,35.2,29.94,SW,232,0.0,0.0,90,0.00,,,0.00,Wunderground v.1.15,2014-01-02 14:41:00,
2014-01-02 09:43:00,38.0,35.3,29.94,SW,232,0.0,0.0,90,0.00,,,0.00,Wunderground v.1.15,2014-01-02 14:43:00,
2014-01-02 09:45:00,38.2,35.5,29.94,SW,232,0.0,0.0,90,0.00,,,0.00,Wunderground v.1.15,2014-01-02 14:45:00,
2014-01-02 09:46:00,38.3,35.3,29.94,SW,231,0.0,1.0,89,0.00,,,0.00,Wunderground v.1.15,2014-01-02 14:46:00,
2014-01-02 09:47:00,38.2,35.2,29.94,SW,232,0.0,1.0,89,0.00,,,0.00,Wunderground v.1.15,2014-01-02 14:47:00,
2014-01-02 09:48:00,38.3,35.3,29.94,SW,232,0.0,1.0,89,0.00,,,0.00,Wunderground v.1.15,2014-01-02 14:48:00,
2014-01-02 09:50:00,38.4,35.4,29.94,SW,232,0.0,0.0,89,0.00,,,0.00,Wunderground v.1.15,2014-01-02 14:50:00,
2014-01-02 09:52:00,38.5,35.5,29.94,SW,232,0.0,0.0,89,0.00,,,0.00,Wunderground v.1.15,2014-01-02 14:52:00,
2014-01-02 09:53:00,38.6,35.6,29.94,SW,232,0.0,0.0,89,0.00,,,0.00,Wunderground v.1.15,2014-01-02 14:53:00,
2014-01-02 09:54:00,38.6,35.6,29.93,SW,232,0.0,0.0,89,0.00,,,0.00,Wunderground v.1.15,2014-01-02 14:54:00,
2014-01-02 09:55:00,38.7,35.7,29.93,SW,231,0.0,0.0,89,0.00,,,0.00,Wunderground v.1.15,2014-01-02 14:55:00,
2014-01-02 09:56:00,38.7,35.7,29.93,SW,232,0.0,0.0,89,0.00,,,0.00,Wunderground v.1.15,2014-01-02 14:56:00,
2014-01-02 09:57:00,38.7,35.7,29.93,SW,231,0.0,0.0,89,0.00,,,0.00,Wunderground v.1.15,2014-01-02 14:57:00,
2014-01-02 09:58:00,38.8,35.8,29.93,SW,232,0.0,0.0,89,0.00,,,0.00,Wunderground v.1.15,2014-01-02 14:58:00,
2014-01-02 10:00:00,38.9,35.9,29.93,SW,232,0.0,0.0,89,0.00,,,0.00,Wunderground v.1.15,2014-01-02 15:00:00,
2014-01-02 10:01:00,38.9,35.9,29.93,SW,232,0.0,0.0,89,0.00,,,0.00,Wunderground v.1.15,2014-01-02 15:01:00,
2014-01-02 10:02:00,39.0,35.7,29.93,SW,232,0.0,0.0,88,0.00,,,0.00,Wunderground v.1.15,2014-01-02 15:02:00,
2014-01-02 10:03:00,39.0,35.7,29.93,SW,232,0.0,0.0,88,0.00,,,0.00,Wunderground v.1.15,2014-01-02 15:03:00,
2014-01-02 10:04:00,39.0,35.7,29.93,SW,232,0.0,0.0,88,0.00,,,0.00,Wunderground v.1.15,2014-01-02 15:04:00,
2014-01-02 10:05:00,39.1,35.8,29.94,SW,232,0.0,0.0,88,0.00,,,0.00,Wunderground v.1.15,2014-01-02 15:05:00,
2014-01-02 10:06:00,39.1,35.8,29.94,SW,232,0.0,0.0,88,0.00,,,0.00,Wunderground v.1.15,2014-01-02 15:06:00,
2014-01-02 10:07:00,39.1,35.8,29.94,SW,232,0.0,0.0,88,0.00,,,0.00,Wunderground v.1.15,2014-01-02 15:07:00,
2014-01-02 10:08:00,39.2,35.9,29.94,SW,231,0.0,0.0,88,0.00,,,0.00,Wunderground v.1.15,2014-01-02 15:08:00,
2014-01-02 10:09:00,39.2,35.9,29.94,SW,232,0.0,0.0,88,0.00,,,0.00,Wunderground v.1.15,2014-01-02 15:09:00,
2014-01-02 10:11:00,39.3,36.0,29.94,SW,231,0.0,1.0,88,0.00,,,0.00,Wunderground v.1.15,2014-01-02 15:11:00,
2014-01-02 10:12:00,39.3,36.0,29.93,SW,232,1.0,1.0,88,0.00,,,0.00,Wunderground v.1.15,2014-01-02 15:12:00,
2014-01-02 10:13:00,39.3,36.0,29.93,SW,231,0.0,1.0,88,0.00,,,0.00,Wunderground v.1.15,2014-01-02 15:13:00,
2014-01-02 10:14:00,39.3,35.8,29.93,SW,232,0.0,1.0,87,0.00,,,0.00,Wunderground v.1.15,2014-01-02 15:14:00,
2014-01-02 10:15:00,39.3,35.8,29.93,SW,233,1.0,1.0,87,0.00,,,0.00,Wunderground v.1.15,2014-01-02 15:15:00,
2014-01-02 10:16:00,39.3,35.8,29.93,SW,233,0.0,1.0,87,0.00,,,0.00,Wunderground v.1.15,2014-01-02 15:16:00,
2014-01-02 10:17:00,39.3,36.0,29.93,SW,233,0.0,1.0,88,0.00,,,0.00,Wunderground v.1.15,2014-01-02 15:17:00,
2014-01-02 10:18:00,39.4,36.1,29.93,SW,233,0.0,1.0,88,0.00,,,0.00,Wunderground v.1.15,2014-01-02 15:18:00,
2014-01-02 10:19:00,39.4,36.1,29.93,SW,233,0.0,1.0,88,0.00,,,0.00,Wunderground v.1.15,2014-01-02 15:19:00,
2014-01-02 10:20:00,39.4,36.1,29.93,SW,233,0.0,0.0,88,0.00,,,0.00,Wunderground v.1.15,2014-01-02 15:20:00,
2014-01-02 10:21:00,39.4,36.1,29.93,SW,233,0.0,0.0,88,0.00,,,0.00,Wunderground v.1.15,2014-01-02 15:21:00,
2014-01-02 10:22:00,39.4,36.1,29.93,SW,233,0.0,1.0,88,0.00,,,0.00,Wunderground v.1.15,2014-01-02 15:22:00,
2014-01-02 10:23:00,39.4,36.1,29.93,SW,233,0.0,1.0,88,0.00,,,0.00,Wunderground v.1.15,2014-01-02 15:23:00,
2014-01-02 10:24:00,39.5,36.2,29.93,SW,233,0.0,1.0,88,0.00,,,0.00,Wunderground v.1.15,2014-01-02 15:24:00,
2014-01-02 10:25:00,39.5,36.2,29.93,SW,233,0.0,1.0,88,0.00,,,0.00,Wunderground v.1.15,2014-01-02 15:25:00,
2014-01-02 10:26:00,39.5,36.2,29.93,SW,233,0.0,1.0,88,0.00,,,0.00,Wunderground v.1.15,2014-01-02 15:26:00,
2014-01-02 10:27:00,39.5,36.2,29.93,SW,233,0.0,1.0,88,0.00,,,0.00,Wunderground v.1.15,2014-01-02 15:27:00,
2014-01-02 10:28:00,39.6,36.3,29.93,SW,233,0.0,1.0,88,0.00,,,0.00,Wunderground v.1.15,2014-01-02 15:28:00,
2014-01-02 10:30:00,39.6,36.3,29.93,SW,233,0.0,0.0,88,0.00,,,0.00,Wunderground v.1.15,2014-01-02 15:30:00,
2014-01-02 10:31:00,39.7,36.4,29.93,SW,233,0.0,0.0,88,0.00,,,0.00,Wunderground v.1.15,2014-01-02 15:31:00,
2014-01-02 10:32:00,39.7,36.4,29.92,SW,233,0.0,0.0,88,0.00,,,0.00,Wunderground v.1.15,2014-01-02 15:32:00,
2014-01-02 10:33:00,39.7,36.4,29.92,SW,233,0.0,0.0,88,0.00,,,0.00,Wunderground v.1.15,2014-01-02 15:33:00,
2014-01-02 10:36:00,39.9,36.6,29.92,SW,233,0.0,0.0,88,0.00,,,0.00,Wunderground v.1.15,2014-01-02 15:36:00,
2014-01-02 10:37:00,39.9,36.3,29.92,SW,233,0.0,0.0,87,0.00,,,0.00,Wunderground v.1.15,2014-01-02 15:37:00,
2014-01-02 10:38:00,39.9,36.3,29.92,SW,233,0.0,0.0,87,0.00,,,0.00,Wunderground v.1.15,2014-01-02 15:38:00,
2014-01-02 10:41:00,40.1,36.5,29.91,SW,233,0.0,0.0,87,0.00,,,0.00,Wunderground v.1.15,2014-01-02 15:41:00,
2014-01-02 10:42:00,40.1,36.5,29.91,SW,233,0.0,0.0,87,0.00,,,0.00,Wunderground v.1.15,2014-01-02 15:42:00,
2014-01-02 10:43:00,40.1,36.5,29.91,SW,234,0.0,0.0,87,0.00,,,0.00,Wunderground v.1.15,2014-01-02 15:43:00,
2014-01-02 10:44:00,40.2,36.6,29.91,SW,233,0.0,0.0,87,0.00,,,0.00,Wunderground v.1.15,2014-01-02 15:44:00,
2014-01-02 10:46:00,40.2,36.6,29.91,SW,233,0.0,0.0,87,0.00,,,0.00,Wunderground v.1.15,2014-01-02 15:46:00,
2014-01-02 10:48:00,40.3,36.7,29.91,SW,233,0.0,0.0,87,0.00,,,0.00,Wunderground v.1.15,2014-01-02 15:48:00,
2014-01-02 10:49:00,40.3,37.0,29.91,SW,233,0.0,0.0,88,0.00,,,0.00,Wunderground v.1.15,2014-01-02 15:49:00,
2014-01-02 10:51:00,40.4,37.1,29.90,SW,233,0.0,0.0,88,0.00,,,0.00,Wunderground v.1.15,2014-01-02 15:51:00,
2014-01-02 10:53:00,40.5,36.9,29.90,NE,53,1.0,1.0,87,0.00,,,0.00,Wunderground v.1.15,2014-01-02 15:53:00,
2014-01-02 10:54:00,40.5,36.9,29.90,NE,53,0.0,1.0,87,0.00,,,0.00,Wunderground v.1.15,2014-01-02 15:54:00,
2014-01-02 10:56:00,40.5,36.9,29.90,NE,54,0.0,1.0,87,0.00,,,0.00,Wunderground v.1.15,2014-01-02 15:56:00,
2014-01-02 10:58:00,40.5,36.9,29.89,NE,54,0.0,1.0,87,0.00,,,0.00,Wunderground v.1.15,2014-01-02 15:58:00,
2014-01-02 11:00:00,40.5,36.9,29.89,NE,53,0.0,0.0,87,0.00,,,0.00,Wunderground v.1.15,2014-01-02 16:00:00,
2014-01-02 11:01:00,40.5,36.9,29.89,NE,54,0.0,0.0,87,0.00,,,0.00,Wunderground v.1.15,2014-01-02 16:01:00,
2014-01-02 11:02:00,40.5,36.9,29.89,NE,53,0.0,0.0,87,0.00,,,0.00,Wunderground v.1.15,2014-01-02 16:02:00,
2014-01-02 11:03:00,40.5,36.9,29.89,NE,54,0.0,0.0,87,0.00,,,0.00,Wunderground v.1.15,2014-01-02 16:03:00,
2014-01-02 11:05:00,40.6,37.0,29.89,NE,53,0.0,0.0,87,0.00,,,0.00,Wunderground v.1.15,2014-01-02 16:05:00,
2014-01-02 11:06:00,40.6,37.0,29.89,NE,54,0.0,0.0,87,0.00,,,0.00,Wunderground v.1.15,2014-01-02 16:06:00,
2014-01-02 11:07:00,40.7,37.1,29.89,NE,53,0.0,0.0,87,0.00,,,0.00,Wunderground v.1.15,2014-01-02 16:07:00,
2014-01-02 11:09:00,40.8,37.2,29.89,NE,53,0.0,0.0,87,0.00,,,0.00,Wunderground v.1.15,2014-01-02 16:09:00,
2014-01-02 11:10:00,40.8,37.2,29.89,NE,54,0.0,0.0,87,0.00,,,0.00,Wunderground v.1.15,2014-01-02 16:10:00,
2014-01-02 11:11:00,40.9,37.3,29.89,NE,53,0.0,0.0,87,0.00,,,0.00,Wunderground v.1.15,2014-01-02 16:11:00,
2014-01-02 11:12:00,40.9,37.3,29.89,NE,53,0.0,0.0,87,0.00,,,0.00,Wunderground v.1.15,2014-01-02 16:12:00,
2014-01-02 11:13:00,40.9,37.3,29.88,NE,53,1.0,1.0,87,0.00,,,0.00,Wunderground v.1.15,2014-01-02 16:13:00,
2014-01-02 11:14:00,40.9,37.3,29.88,NE,54,1.0,1.0,87,0.00,,,0.00,Wunderground v.1.15,2014-01-02 16:14:00,
2014-01-02 11:15:00,41.0,37.4,29.88,NE,53,0.0,1.0,87,0.00,,,0.00,Wunderground v.1.15,2014-01-02 16:15:00,
2014-01-02 11:17:00,41.0,37.4,29.88,NE,53,0.0,1.0,87,0.00,,,0.00,Wunderground v.1.15,2014-01-02 16:17:00,
2014-01-02 11:18:00,41.0,37.4,29.88,NE,53,0.0,1.0,87,0.00,,,0.00,Wunderground v.1.15,2014-01-02 16:18:00,
2014-01-02 11:19:00,41.1,37.5,29.88,NE,53,0.0,1.0,87,0.00,,,0.00,Wunderground v.1.15,2014-01-02 16:19:00,
2014-01-02 11:21:00,41.2,37.6,29.88,NE,53,0.0,0.0,87,0.00,,,0.00,Wunderground v.1.15,2014-01-02 16:21:00,
2014-01-02 11:22:00,41.2,37.6,29.88,NE,53,0.0,0.0,87,0.00,,,0.00,Wunderground v.1.15,2014-01-02 16:22:00,
2014-01-02 11:23:00,41.2,37.6,29.87,NE,53,0.0,0.0,87,0.00,,,0.00,Wunderground v.1.15,2014-01-02 16:23:00,
2014-01-02 11:24:00,41.3,37.7,29.87,NE,53,0.0,0.0,87,0.00,,,0.00,Wunderground v.1.15,2014-01-02 16:24:00,
2014-01-02 11:26:00,41.3,37.7,29.87,NE,54,0.0,0.0,87,0.00,,,0.00,Wunderground v.1.15,2014-01-02 16:26:00,
2014-01-02 11:27:00,41.4,37.8,29.88,NE,53,0.0,0.0,87,0.00,,,0.00,Wunderground v.1.15,2014-01-02 16:27:00,
2014-01-02 11:28:00,41.4,37.8,29.87,NE,53,0.0,0.0,87,0.00,,,0.00,Wunderground v.1.15,2014-01-02 16:28:00,
2014-01-02 11:29:00,41.5,37.9,29.87,NE,53,0.0,0.0,87,0.00,,,0.00,Wunderground v.1.15,2014-01-02 16:29:00,
2014-01-02 11:30:00,41.5,37.9,29.87,NE,54,0.0,0.0,87,0.00,,,0.00,Wunderground v.1.15,2014-01-02 16:30:00,
2014-01-02 11:31:00,41.6,38.0,29.87,NE,53,0.0,1.0,87,0.00,,,0.00,Wunderground v.1.15,2014-01-02 16:31:00,
2014-01-02 11:32:00,41.7,38.1,29.87,NE,53,0.0,1.0,87,0.00,,,0.00,Wunderground v.1.15,2014-01-02 16:32:00,
2014-01-02 11:33:00,41.8,38.2,29.87,NNW,335,0.0,1.0,87,0.00,,,0.00,Wunderground v.1.15,2014-01-02 16:33:00,
2014-01-02 11:34:00,41.9,38.3,29.87,NNW,335,0.0,1.0,87,0.00,,,0.00,Wunderground v.1.15,2014-01-02 16:34:00,
2014-01-02 11:35:00,41.9,38.3,29.87,NW,305,1.0,1.0,87,0.00,,,0.00,Wunderground v.1.15,2014-01-02 16:35:00,
2014-01-02 11:36:00,41.9,38.0,29.87,NNW,337,1.0,1.0,86,0.00,,,0.00,Wunderground v.1.15,2014-01-02 16:36:00,
2014-01-02 11:37:00,41.9,38.0,29.87,NNW,335,1.0,1.0,86,0.00,,,0.00,Wunderground v.1.15,2014-01-02 16:37:00,
2014-01-02 11:38:00,41.9,38.0,29.87,NNW,335,0.0,1.0,86,0.00,,,0.00,Wunderground v.1.15,2014-01-02 16:38:00,
2014-01-02 11:39:00,41.9,38.0,29.87,NNW,335,0.0,1.0,86,0.00,,,0.00,Wunderground v.1.15,2014-01-02 16:39:00,
2014-01-02 11:40:00,41.9,38.0,29.87,NNW,335,0.0,0.0,86,0.00,,,0.00,Wunderground v.1.15,2014-01-02 16:40:00,
2014-01-02 11:41:00,41.9,38.0,29.86,NNW,335,0.0,1.0,86,0.00,,,0.00,Wunderground v.1.15,2014-01-02 16:41:00,
2014-01-02 11:42:00,41.9,38.0,29.86,NE,39,1.0,1.0,86,0.00,,,0.00,Wunderground v.1.15,2014-01-02 16:42:00,
2014-01-02 11:44:00,41.9,38.0,29.86,NE,49,0.0,1.0,86,0.00,,,0.00,Wunderground v.1.15,2014-01-02 16:44:00,
2014-01-02 11:45:00,41.9,38.0,29.85,NE,50,0.0,1.0,86,0.00,,,0.00,Wunderground v.1.15,2014-01-02 16:45:00,
2014-01-02 11:46:00,41.9,38.0,29.85,NE,49,0.0,1.0,86,0.00,,,0.00,Wunderground v.1.15,2014-01-02 16:46:00,
2014-01-02 11:47:00,41.9,38.0,29.85,NE,50,0.0,1.0,86,0.00,,,0.00,Wunderground v.1.15,2014-01-02 16:47:00,
2014-01-02 11:49:00,41.9,38.0,29.85,NE,50,1.0,1.0,86,0.00,,,0.00,Wunderground v.1.15,2014-01-02 16:49:00,
2014-01-02 11:50:00,41.9,38.0,29.85,NW,323,1.0,1.0,86,0.00,,,0.00,Wunderground v.1.15,2014-01-02 16:50:00,
2014-01-02 11:51:00,41.9,38.0,29.85,NW,323,0.0,1.0,86,0.00,,,0.00,Wunderground v.1.15,2014-01-02 16:51:00,
2014-01-02 11:52:00,41.9,38.0,29.85,NW,323,0.0,1.0,86,0.00,,,0.00,Wunderground v.1.15,2014-01-02 16:52:00,
2014-01-02 11:55:00,41.9,38.0,29.84,NW,323,0.0,1.0,86,0.00,,,0.00,Wunderground v.1.15,2014-01-02 16:55:00,
2014-01-02 11:56:00,41.9,38.3,29.84,NW,323,0.0,1.0,87,0.00,,,0.00,Wunderground v.1.15,2014-01-02 16:56:00,
2014-01-02 11:58:00,42.0,38.4,29.84,NW,323,0.0,1.0,87,0.00,,,0.00,Wunderground v.1.15,2014-01-02 16:58:00,
2014-01-02 12:00:00,42.0,38.7,29.84,NW,323,0.0,0.0,88,0.00,,,0.00,Wunderground v.1.15,2014-01-02 17:00:00,
2014-01-02 12:01:00,42.0,38.7,29.84,NW,323,0.0,0.0,88,0.00,,,0.00,Wunderground v.1.15,2014-01-02 17:01:00,
2014-01-02 12:02:00,42.1,38.8,29.84,NW,323,0.0,0.0,88,0.00,,,0.00,Wunderground v.1.15,2014-01-02 17:02:00,
2014-01-02 12:03:00,42.1,38.8,29.84,WSW,248,2.0,3.0,88,0.00,,,0.00,Wunderground v.1.15,2014-01-02 17:03:00,
2014-01-02 12:05:00,42.1,39.4,29.84,WSW,248,1.0,3.0,90,0.00,,,0.00,Wunderground v.1.15,2014-01-02 17:05:00,
2014-01-02 12:06:00,42.1,39.4,29.84,West,264,2.0,3.0,90,0.00,,,0.00,Wunderground v.1.15,2014-01-02 17:06:00,
2014-01-02 12:07:00,42.1,39.4,29.84,West,264,1.0,3.0,90,0.00,,,0.00,Wunderground v.1.15,2014-01-02 17:07:00,
2014-01-02 12:08:00,42.0,39.3,29.84,WSW,246,1.0,3.0,90,0.00,,,0.00,Wunderground v.1.15,2014-01-02 17:08:00,
2014-01-02 12:11:00,41.9,39.5,29.84,WSW,255,1.0,2.0,91,0.00,,,0.00,Wunderground v.1.15,2014-01-02 17:11:00,
2014-01-02 12:12:00,41.9,39.5,29.84,SW,231,1.0,2.0,91,0.00,,,0.00,Wunderground v.1.15,2014-01-02 17:12:00,
2014-01-02 12:13:00,41.8,39.4,29.84,SW,230,0.0,2.0,91,0.00,,,0.00,Wunderground v.1.15,2014-01-02 17:13:00,
2014-01-02 12:14:00,41.8,39.6,29.84,WSW,255,1.0,2.0,92,0.00,,,0.00,Wunderground v.1.15,2014-01-02 17:14:00,
2014-01-02 12:16:00,41.7,39.5,29.84,WSW,255,1.0,2.0,92,0.00,,,0.00,Wunderground v.1.15,2014-01-02 17:16:00,
2014-01-02 12:17:00,41.7,39.5,29.84,West,266,1.0,2.0,92,0.00,,,0.00,Wunderground v.1.15,2014-01-02 17:17:00,
2014-01-02 12:18:00,41.6,39.4,29.83,West,266,0.0,2.0,92,0.00,,,0.00,Wunderground v.1.15,2014-01-02 17:18:00,
2014-01-02 12:19:00,41.5,39.3,29.83,West,266,0.0,2.0,92,0.00,,,0.01,Wunderground v.1.15,2014-01-02 17:19:00,
2014-01-02 12:21:00,41.5,39.6,29.83,West,281,0.0,1.0,93,0.00,,,0.01,Wunderground v.1.15,2014-01-02 17:21:00,
2014-01-02 12:22:00,41.5,39.6,29.83,West,281,0.0,1.0,93,0.00,,,0.01,Wunderground v.1.15,2014-01-02 17:22:00,
2014-01-02 12:23:00,41.5,39.6,29.83,West,281,1.0,1.0,93,0.00,,,0.01,Wunderground v.1.15,2014-01-02 17:23:00,
2014-01-02 12:24:00,41.5,39.6,29.83,WSW,258,1.0,1.0,93,0.00,,,0.01,Wunderground v.1.15,2014-01-02 17:24:00,
2014-01-02 12:26:00,41.4,39.5,29.83,WSW,240,0.0,1.0,93,0.00,,,0.01,Wunderground v.1.15,2014-01-02 17:26:00,
2014-01-02 12:27:00,41.4,39.5,29.83,WSW,245,1.0,1.0,93,0.00,,,0.01,Wunderground v.1.15,2014-01-02 17:27:00,
2014-01-02 12:28:00,41.4,39.5,29.83,WSW,244,1.0,1.0,93,0.07,,,0.01,Wunderground v.1.15,2014-01-02 17:28:00,
2014-01-02 12:29:00,41.4,39.8,29.83,SW,215,1.0,3.0,94,0.07,,,0.02,Wunderground v.1.15,2014-01-02 17:29:00,
2014-01-02 12:32:00,41.3,39.7,29.83,SW,215,0.0,1.0,94,0.07,,,0.02,Wunderground v.1.15,2014-01-02 17:32:00,
2014-01-02 12:33:00,41.3,39.7,29.82,SW,215,1.0,1.0,94,0.07,,,0.02,Wunderground v.1.15,2014-01-02 17:33:00,
2014-01-02 12:34:00,41.3,39.7,29.82,SW,216,0.0,1.0,94,0.07,,,0.02,Wunderground v.1.15,2014-01-02 17:34:00,
2014-01-02 12:35:00,41.3,39.7,29.82,SW,215,0.0,1.0,94,0.07,,,0.02,Wunderground v.1.15,2014-01-02 17:35:00,
2014-01-02 12:37:00,41.4,39.8,29.82,SW,224,0.0,2.0,94,0.07,,,0.03,Wunderground v.1.15,2014-01-02 17:37:00,
2014-01-02 12:38:00,41.3,39.7,29.82,SW,224,0.0,2.0,94,0.07,,,0.03,Wunderground v.1.15,2014-01-02 17:38:00,
2014-01-02 12:39:00,41.3,39.7,29.82,SW,224,0.0,2.0,94,0.07,,,0.03,Wunderground v.1.15,2014-01-02 17:39:00,
2014-01-02 12:40:00,41.4,39.8,29.81,SW,224,0.0,0.0,94,0.07,,,0.03,Wunderground v.1.15,2014-01-02 17:40:00,
2014-01-02 12:42:00,41.4,39.8,29.81,SW,224,0.0,0.0,94,0.07,,,0.03,Wunderground v.1.15,2014-01-02 17:42:00,
2014-01-02 12:44:00,41.4,40.1,29.81,SW,224,0.0,0.0,95,0.07,,,0.03,Wunderground v.1.15,2014-01-02 17:44:00,
2014-01-02 12:45:00,41.5,40.2,29.81,SW,224,0.0,1.0,95,0.07,,,0.04,Wunderground v.1.15,2014-01-02 17:45:00,
2014-01-02 12:47:00,41.5,39.9,29.81,SW,224,0.0,1.0,94,0.07,,,0.04,Wunderground v.1.15,2014-01-02 17:47:00,
2014-01-02 12:49:00,41.5,40.2,29.81,SW,224,1.0,1.0,95,0.07,,,0.04,Wunderground v.1.15,2014-01-02 17:49:00,
2014-01-02 12:50:00,41.5,40.2,29.80,SW,224,0.0,0.0,95,0.07,,,0.04,Wunderground v.1.15,2014-01-02 17:50:00,
2014-01-02 12:52:00,41.5,39.9,29.80,SW,224,0.0,1.0,94,0.07,,,0.04,Wunderground v.1.15,2014-01-02 17:52:00,
2014-01-02 12:54:00,41.5,40.2,29.80,SW,222,2.0,2.0,95,0.07,,,0.05,Wunderground v.1.15,2014-01-02 17:54:00,
2014-01-02 12:55:00,41.5,40.2,29.80,SW,222,2.0,2.0,95,0.07,,,0.05,Wunderground v.1.15,2014-01-02 17:55:00,
2014-01-02 12:56:00,41.5,40.2,29.79,SW,223,1.0,2.0,95,0.07,,,0.05,Wunderground v.1.15,2014-01-02 17:56:00,
2014-01-02 12:57:00,41.5,40.2,29.79,SW,224,1.0,2.0,95,0.07,,,0.05,Wunderground v.1.15,2014-01-02 17:57:00,
2014-01-02 12:59:00,41.5,40.2,29.79,SW,225,1.0,2.0,95,0.11,,,0.06,Wunderground v.1.15,2014-01-02 17:59:00,
2014-01-02 13:00:00,41.5,40.2,29.79,SW,225,0.0,1.0,95,0.11,,,0.06,Wunderground v.1.15,2014-01-02 18:00:00,
2014-01-02 13:01:00,41.5,40.2,29.79,SW,224,0.0,1.0,95,0.11,,,0.06,Wunderground v.1.15,2014-01-02 18:01:00,
2014-01-02 13:03:00,41.5,40.2,29.79,ESE,105,1.0,1.0,95,0.11,,,0.06,Wunderground v.1.15,2014-01-02 18:03:00,
2014-01-02 13:05:00,41.5,40.2,29.79,ESE,110,0.0,1.0,95,0.11,,,0.07,Wunderground v.1.15,2014-01-02 18:05:00,
2014-01-02 13:06:00,41.6,40.3,29.79,ESE,110,0.0,1.0,95,0.11,,,0.07,Wunderground v.1.15,2014-01-02 18:06:00,
2014-01-02 13:08:00,41.7,40.4,29.78,ESE,110,0.0,1.0,95,0.11,,,0.07,Wunderground v.1.15,2014-01-02 18:08:00,
2014-01-02 13:10:00,41.7,40.4,29.78,ESE,110,0.0,1.0,95,0.11,,,0.07,Wunderground v.1.15,2014-01-02 18:10:00,
2014-01-02 13:11:00,41.8,40.5,29.78,ESE,110,0.0,1.0,95,0.09,,,0.07,Wunderground v.1.15,2014-01-02 18:11:00,
2014-01-02 13:14:00,41.9,40.6,29.78,WSW,252,0.0,2.0,95,0.08,,,0.08,Wunderground v.1.15,2014-01-02 18:14:00,
2014-01-02 13:15:00,41.9,40.6,29.77,WSW,252,0.0,2.0,95,0.08,,,0.08,Wunderground v.1.15,2014-01-02 18:15:00,
2014-01-02 13:16:00,41.9,40.6,29.77,WSW,252,1.0,2.0,95,0.08,,,0.08,Wunderground v.1.15,2014-01-02 18:16:00,
2014-01-02 13:19:00,42.0,40.9,29.77,WSW,252,0.0,2.0,96,0.08,,,0.08,Wunderground v.1.15,2014-01-02 18:19:00,
2014-01-02 13:20:00,42.1,41.0,29.77,WSW,252,0.0,1.0,96,0.08,,,0.08,Wunderground v.1.15,2014-01-02 18:20:00,
2014-01-02 13:21:00,42.1,41.0,29.77,WSW,252,1.0,1.0,96,0.08,,,0.09,Wunderground v.1.15,2014-01-02 18:21:00,
2014-01-02 13:22:00,42.1,41.0,29.77,WSW,252,0.0,1.0,96,0.08,,,0.09,Wunderground v.1.15,2014-01-02 18:22:00,
2014-01-02 13:25:00,42.2,41.1,29.77,WSW,244,0.0,1.0,96,0.08,,,0.09,Wunderground v.1.15,2014-01-02 18:25:00,
2014-01-02 13:26:00,42.1,41.0,29.76,WSW,245,0.0,1.0,96,0.08,,,0.09,Wunderground v.1.15,2014-01-02 18:26:00,
2014-01-02 13:27:00,42.2,41.1,29.76,WSW,245,0.0,1.0,96,0.10,,,0.10,Wunderground v.1.15,2014-01-02 18:27:00,
2014-01-02 13:30:00,42.3,41.2,29.76,WSW,244,0.0,0.0,96,0.10,,,0.10,Wunderground v.1.15,2014-01-02 18:30:00,
2014-01-02 13:31:00,42.3,41.2,29.76,WSW,244,0.0,0.0,96,0.14,,,0.11,Wunderground v.1.15,2014-01-02 18:31:00,
2014-01-02 13:32:00,42.3,41.2,29.76,WSW,245,0.0,0.0,96,0.14,,,0.11,Wunderground v.1.15,2014-01-02 18:32:00,
2014-01-02 13:33:00,42.3,41.2,29.76,WSW,245,0.0,0.0,96,0.14,,,0.11,Wunderground v.1.15,2014-01-02 18:33:00,
2014-01-02 13:35:00,42.3,41.2,29.76,WSW,245,0.0,1.0,96,0.13,,,0.11,Wunderground v.1.15,2014-01-02 18:35:00,
2014-01-02 13:36:00,42.3,41.2,29.76,WSW,245,0.0,1.0,96,0.12,,,0.11,Wunderground v.1.15,2014-01-02 18:36:00,
2014-01-02 13:37:00,42.4,41.3,29.76,WSW,245,0.0,1.0,96,0.10,,,0.11,Wunderground v.1.15,2014-01-02 18:37:00,
2014-01-02 13:38:00,42.4,41.3,29.76,WSW,245,0.0,1.0,96,0.09,,,0.12,Wunderground v.1.15,2014-01-02 18:38:00,
2014-01-02 13:41:00,42.4,41.3,29.75,WSW,245,0.0,0.0,96,0.09,,,0.12,Wunderground v.1.15,2014-01-02 18:41:00,
2014-01-02 13:42:00,42.5,41.4,29.75,WSW,244,0.0,0.0,96,0.09,,,0.12,Wunderground v.1.15,2014-01-02 18:42:00,
2014-01-02 13:43:00,42.5,41.4,29.75,WSW,245,0.0,0.0,96,0.09,,,0.12,Wunderground v.1.15,2014-01-02 18:43:00,
2014-01-02 13:44:00,42.6,41.5,29.75,WSW,245,0.0,0.0,96,0.08,,,0.12,Wunderground v.1.15,2014-01-02 18:44:00,
2014-01-02 13:46:00,42.6,41.5,29.75,WSW,244,0.0,0.0,96,0.07,,,0.12,Wunderground v.1.15,2014-01-02 18:46:00,
2014-01-02 13:47:00,42.6,41.5,29.75,WSW,245,0.0,0.0,96,0.07,,,0.13,Wunderground v.1.15,2014-01-02 18:47:00,
2014-01-02 13:48:00,42.6,41.5,29.75,WSW,245,0.0,0.0,96,0.07,,,0.13,Wunderground v.1.15,2014-01-02 18:48:00,
2014-01-02 13:49:00,42.5,41.4,29.75,WSW,244,0.0,0.0,96,0.07,,,0.13,Wunderground v.1.15,2014-01-02 18:49:00,
2014-01-02 13:51:00,42.5,41.4,29.75,WSW,244,0.0,0.0,96,0.07,,,0.13,Wunderground v.1.15,2014-01-02 18:51:00,
2014-01-02 13:52:00,42.5,41.4,29.75,WSW,245,1.0,1.0,96,0.07,,,0.13,Wunderground v.1.15,2014-01-02 18:52:00,
2014-01-02 13:54:00,42.5,41.4,29.75,WSW,244,0.0,1.0,96,0.07,,,0.13,Wunderground v.1.15,2014-01-02 18:54:00,
2014-01-02 13:55:00,42.5,41.4,29.75,WSW,244,0.0,1.0,96,0.07,,,0.13,Wunderground v.1.15,2014-01-02 18:55:00,
2014-01-02 13:56:00,42.5,41.4,29.75,WSW,245,0.0,1.0,96,0.06,,,0.13,Wunderground v.1.15,2014-01-02 18:56:00,
2014-01-02 13:57:00,42.6,41.5,29.74,WSW,245,0.0,1.0,96,0.06,,,0.14,Wunderground v.1.15,2014-01-02 18:57:00,
2014-01-02 13:59:00,42.6,41.5,29.74,WSW,245,0.0,1.0,96,0.06,,,0.14,Wunderground v.1.15,2014-01-02 18:59:00,
2014-01-02 14:00:00,42.6,41.5,29.74,WSW,245,0.0,0.0,96,0.06,,,0.14,Wunderground v.1.15,2014-01-02 19:00:00,
2014-01-02 14:01:00,42.6,41.5,29.74,WSW,245,0.0,0.0,96,0.06,,,0.14,Wunderground v.1.15,2014-01-02 19:01:00,
2014-01-02 14:02:00,42.7,41.6,29.74,WSW,245,0.0,0.0,96,0.06,,,0.14,Wunderground v.1.15,2014-01-02 19:02:00,
2014-01-02 14:05:00,42.7,41.6,29.74,WSW,245,1.0,1.0,96,0.09,,,0.15,Wunderground v.1.15,2014-01-02 19:05:00,
2014-01-02 14:06:00,42.7,41.6,29.74,WSW,245,0.0,1.0,96,0.09,,,0.15,Wunderground v.1.15,2014-01-02 19:06:00,
2014-01-02 14:07:00,42.7,41.6,29.74,WSW,244,0.0,1.0,96,0.09,,,0.15,Wunderground v.1.15,2014-01-02 19:07:00,
2014-01-02 14:10:00,42.8,41.7,29.73,WSW,244,0.0,0.0,96,0.09,,,0.15,Wunderground v.1.15,2014-01-02 19:10:00,
2014-01-02 14:11:00,42.8,41.7,29.73,SW,236,1.0,1.0,96,0.09,,,0.16,Wunderground v.1.15,2014-01-02 19:11:00,
2014-01-02 14:12:00,42.8,41.7,29.73,SW,236,1.0,1.0,96,0.09,,,0.16,Wunderground v.1.15,2014-01-02 19:12:00,
2014-01-02 14:13:00,42.9,41.8,29.73,WSW,237,1.0,1.0,96,0.09,,,0.16,Wunderground v.1.15,2014-01-02 19:13:00,
2014-01-02 14:15:00,42.9,41.8,29.73,SW,236,0.0,1.0,96,0.09,,,0.16,Wunderground v.1.15,2014-01-02 19:15:00,
2014-01-02 14:16:00,42.9,41.8,29.73,SW,232,1.0,1.0,96,0.09,,,0.16,Wunderground v.1.15,2014-01-02 19:16:00,
2014-01-02 14:17:00,42.9,41.8,29.73,SW,232,1.0,1.0,96,0.09,,,0.16,Wunderground v.1.15,2014-01-02 19:17:00,
2014-01-02 14:18:00,42.9,41.8,29.73,West,259,1.0,1.0,96,0.08,,,0.16,Wunderground v.1.15,2014-01-02 19:18:00,
2014-01-02 14:19:00,42.9,41.8,29.73,SW,225,2.0,2.0,96,0.07,,,0.16,Wunderground v.1.15,2014-01-02 19:19:00,
2014-01-02 14:20:00,42.9,41.8,29.73,SW,225,0.0,1.0,96,0.06,,,0.16,Wunderground v.1.15,2014-01-02 19:20:00,
2014-01-02 14:21:00,42.9,41.8,29.73,SW,225,0.0,1.0,96,0.05,,,0.16,Wunderground v.1.15,2014-01-02 19:21:00,
2014-01-02 14:22:00,42.9,41.8,29.73,SW,229,1.0,1.0,96,0.05,,,0.16,Wunderground v.1.15,2014-01-02 19:22:00,
2014-01-02 14:23:00,42.9,41.8,29.73,SW,229,0.0,1.0,96,0.05,,,0.16,Wunderground v.1.15,2014-01-02 19:23:00,
2014-01-02 14:24:00,42.9,41.8,29.73,SW,236,2.0,2.0,96,0.04,,,0.16,Wunderground v.1.15,2014-01-02 19:24:00,
2014-01-02 14:26:00,42.9,41.8,29.73,WSW,244,0.0,2.0,96,0.04,,,0.16,Wunderground v.1.15,2014-01-02 19:26:00,
2014-01-02 14:27:00,42.9,41.8,29.73,WSW,244,0.0,2.0,96,0.04,,,0.17,Wunderground v.1.15,2014-01-02 19:27:00,
2014-01-02 14:28:00,42.9,41.8,29.73,WSW,243,0.0,2.0,96,0.04,,,0.17,Wunderground v.1.15,2014-01-02 19:28:00,
2014-01-02 14:29:00,42.9,41.8,29.73,WSW,252,1.0,2.0,96,0.04,,,0.17,Wunderground v.1.15,2014-01-02 19:29:00,
2014-01-02 14:31:00,42.9,41.8,29.73,WSW,239,1.0,1.0,96,0.04,,,0.17,Wunderground v.1.15,2014-01-02 19:31:00,
2014-01-02 14:32:00,42.9,41.8,29.73,SW,236,1.0,1.0,96,0.04,,,0.17,Wunderground v.1.15,2014-01-02 19:32:00,
2014-01-02 14:33:00,42.9,41.8,29.73,SW,235,0.0,1.0,96,0.09,,,0.18,Wunderground v.1.15,2014-01-02 19:33:00,
2014-01-02 14:35:00,42.9,41.8,29.73,SW,235,0.0,1.0,96,0.09,,,0.18,Wunderground v.1.15,2014-01-02 19:35:00,
2014-01-02 14:36:00,42.9,41.8,29.73,SW,235,0.0,1.0,96,0.09,,,0.18,Wunderground v.1.15,2014-01-02 19:36:00,
2014-01-02 14:37:00,42.9,41.8,29.73,SW,236,0.0,1.0,96,0.09,,,0.18,Wunderground v.1.15,2014-01-02 19:37:00,
2014-01-02 14:38:00,42.9,41.8,29.72,SW,235,0.0,1.0,96,0.09,,,0.18,Wunderground v.1.15,2014-01-02 19:38:00,
2014-01-02 14:40:00,42.9,41.8,29.72,SW,236,0.0,0.0,96,0.08,,,0.18,Wunderground v.1.15,2014-01-02 19:40:00,
2014-01-02 14:42:00,42.9,41.8,29.72,SW,235,0.0,0.0,96,0.08,,,0.19,Wunderground v.1.15,2014-01-02 19:42:00,
2014-01-02 14:43:00,42.9,42.1,29.72,SW,233,0.0,0.0,97,0.08,,,0.19,Wunderground v.1.15,2014-01-02 19:43:00,
2014-01-02 14:45:00,43.0,42.2,29.72,SW,233,0.0,0.0,97,0.08,,,0.19,Wunderground v.1.15,2014-01-02 19:45:00,
2014-01-02 14:47:00,43.0,42.2,29.72,SW,226,0.0,1.0,97,0.08,,,0.19,Wunderground v.1.15,2014-01-02 19:47:00,
2014-01-02 14:48:00,43.0,42.2,29.71,SW,226,0.0,1.0,97,0.09,,,0.20,Wunderground v.1.15,2014-01-02 19:48:00,
2014-01-02 14:50:00,43.1,42.3,29.71,SW,226,0.0,1.0,97,0.09,,,0.20,Wunderground v.1.15,2014-01-02 19:50:00,
2014-01-02 14:52:00,43.1,42.3,29.71,SW,226,0.0,1.0,97,0.09,,,0.20,Wunderground v.1.15,2014-01-02 19:52:00,
2014-01-02 14:53:00,43.1,42.3,29.70,SW,226,0.0,1.0,97,0.09,,,0.20,Wunderground v.1.15,2014-01-02 19:53:00,
2014-01-02 14:56:00,43.1,42.3,29.71,SW,226,0.0,1.0,97,0.07,,,0.20,Wunderground v.1.15,2014-01-02 19:56:00,
2014-01-02 14:57:00,43.2,42.4,29.71,SW,226,1.0,1.0,97,0.06,,,0.20,Wunderground v.1.15,2014-01-02 19:57:00,
2014-01-02 14:58:00,43.1,42.3,29.71,SW,229,0.0,2.0,97,0.06,,,0.21,Wunderground v.1.15,2014-01-02 19:58:00,
2014-01-02 14:59:00,43.2,42.4,29.71,SW,229,0.0,2.0,97,0.06,,,0.21,Wunderground v.1.15,2014-01-02 19:59:00,
2014-01-02 15:01:00,43.2,42.4,29.70,SW,229,0.0,0.0,97,0.06,,,0.21,Wunderground v.1.15,2014-01-02 20:01:00,
2014-01-02 15:02:00,43.2,42.4,29.70,WSW,238,1.0,1.0,97,0.06,,,0.21,Wunderground v.1.15,2014-01-02 20:02:00,
2014-01-02 15:03:00,43.2,42.4,29.70,WSW,238,1.0,1.0,97,0.06,,,0.21,Wunderground v.1.15,2014-01-02 20:03:00,
2014-01-02 15:04:00,43.3,42.5,29.70,West,266,0.0,1.0,97,0.06,,,0.21,Wunderground v.1.15,2014-01-02 20:04:00,
2014-01-02 15:06:00,43.3,42.5,29.70,WSW,238,0.0,2.0,97,0.06,,,0.21,Wunderground v.1.15,2014-01-02 20:06:00,
2014-01-02 15:07:00,43.3,42.5,29.70,SW,224,1.0,2.0,97,0.06,,,0.21,Wunderground v.1.15,2014-01-02 20:07:00,
2014-01-02 15:08:00,43.3,42.5,29.70,SW,224,0.0,2.0,97,0.06,,,0.21,Wunderground v.1.15,2014-01-02 20:08:00,
2014-01-02 15:09:00,43.3,42.5,29.70,West,263,1.0,2.0,97,0.06,,,0.22,Wunderground v.1.15,2014-01-02 20:09:00,
2014-01-02 15:12:00,43.3,42.5,29.71,WSW,255,1.0,1.0,97,0.06,,,0.22,Wunderground v.1.15,2014-01-02 20:12:00,
2014-01-02 15:13:00,43.3,42.5,29.71,SW,221,1.0,2.0,97,0.06,,,0.22,Wunderground v.1.15,2014-01-02 20:13:00,
2014-01-02 15:14:00,43.3,42.5,29.71,SW,222,1.0,2.0,97,0.06,,,0.22,Wunderground v.1.15,2014-01-02 20:14:00,
2014-01-02 15:15:00,43.3,42.5,29.71,SW,222,1.0,2.0,97,0.10,,,0.23,Wunderground v.1.15,2014-01-02 20:15:00,
2014-01-02 15:17:00,43.3,42.5,29.71,SW,222,0.0,2.0,97,0.10,,,0.23,Wunderground v.1.15,2014-01-02 20:17:00,
2014-01-02 15:18:00,43.3,42.5,29.71,WSW,237,1.0,2.0,97,0.10,,,0.23,Wunderground v.1.15,2014-01-02 20:18:00,
2014-01-02 15:19:00,43.3,42.5,29.71,WSW,238,1.0,2.0,97,0.10,,,0.23,Wunderground v.1.15,2014-01-02 20:19:00,
2014-01-02 15:20:00,43.3,42.5,29.71,SW,229,3.0,3.0,97,0.10,,,0.23,Wunderground v.1.15,2014-01-02 20:20:00,
2014-01-02 15:21:00,43.3,42.5,29.71,SW,226,1.0,3.0,97,0.09,,,0.24,Wunderground v.1.15,2014-01-02 20:21:00,
2014-01-02 15:22:00,43.3,42.5,29.70,SW,221,1.0,3.0,97,0.09,,,0.24,Wunderground v.1.15,2014-01-02 20:22:00,
2014-01-02 15:24:00,43.4,42.6,29.70,SW,224,1.0,3.0,97,0.21,,,0.24,Wunderground v.1.15,2014-01-02 20:24:00,
2014-01-02 15:25:00,43.3,42.5,29.70,SW,236,2.0,3.0,97,0.21,,,0.25,Wunderground v.1.15,2014-01-02 20:25:00,
2014-01-02 15:26:00,43.3,42.5,29.70,WSW,237,0.0,3.0,97,0.19,,,0.25,Wunderground v.1.15,2014-01-02 20:26:00,
2014-01-02 15:27:00,43.4,42.6,29.70,SW,236,0.0,3.0,97,0.15,,,0.25,Wunderground v.1.15,2014-01-02 20:27:00,
2014-01-02 15:29:00,43.4,42.6,29.70,SW,236,0.0,3.0,97,0.11,,,0.25,Wunderground v.1.15,2014-01-02 20:29:00,
2014-01-02 15:30:00,43.4,42.6,29.70,WSW,237,0.0,1.0,97,0.09,,,0.25,Wunderground v.1.15,2014-01-02 20:30:00,
2014-01-02 15:31:00,43.4,42.6,29.70,SW,236,0.0,1.0,97,0.09,,,0.26,Wunderground v.1.15,2014-01-02 20:31:00,
2014-01-02 15:32:00,43.4,42.6,29.70,SW,236,0.0,1.0,97,0.09,,,0.26,Wunderground v.1.15,2014-01-02 20:32:00,
2014-01-02 15:34:00,43.5,42.7,29.70,SW,236,0.0,1.0,97,0.09,,,0.26,Wunderground v.1.15,2014-01-02 20:34:00,
2014-01-02 15:35:00,43.4,42.6,29.70,SW,236,0.0,1.0,97,0.09,,,0.26,Wunderground v.1.15,2014-01-02 20:35:00,
2014-01-02 15:36:00,43.5,42.7,29.70,WSW,240,0.0,1.0,97,0.09,,,0.26,Wunderground v.1.15,2014-01-02 20:36:00,
2014-01-02 15:37:00,43.5,42.7,29.69,WSW,257,1.0,1.0,97,0.08,,,0.26,Wunderground v.1.15,2014-01-02 20:37:00,
2014-01-02 15:39:00,43.5,42.7,29.69,WSW,257,0.0,1.0,97,0.06,,,0.26,Wunderground v.1.15,2014-01-02 20:39:00,
2014-01-02 15:40:00,43.5,42.7,29.69,WSW,257,0.0,0.0,97,0.06,,,0.26,Wunderground v.1.15,2014-01-02 20:40:00,
2014-01-02 15:41:00,43.5,42.7,29.69,WSW,257,0.0,0.0,97,0.05,,,0.26,Wunderground v.1.15,2014-01-02 20:41:00,
2014-01-02 15:42:00,43.5,42.7,29.69,WSW,257,0.0,0.0,97,0.05,,,0.26,Wunderground v.1.15,2014-01-02 20:42:00,
2014-01-02 15:43:00,43.5,42.7,29.69,WSW,257,0.0,0.0,97,0.05,,,0.26,Wunderground v.1.15,2014-01-02 20:43:00,
2014-01-02 15:44:00,43.5,42.7,29.69,WSW,257,0.0,0.0,97,0.04,,,0.26,Wunderground v.1.15,2014-01-02 20:44:00,
2014-01-02 15:45:00,43.5,42.7,29.69,WSW,257,0.0,0.0,97,0.04,,,0.26,Wunderground v.1.15,2014-01-02 20:45:00,
2014-01-02 15:46:00,43.5,42.7,29.69,WSW,257,0.0,0.0,97,0.04,,,0.26,Wunderground v.1.15,2014-01-02 20:46:00,
2014-01-02 15:48:00,43.5,42.7,29.69,WSW,257,0.0,0.0,97,0.00,,,0.26,Wunderground v.1.15,2014-01-02 20:48:00,
2014-01-02 15:50:00,43.5,42.7,29.69,WSW,257,0.0,0.0,97,0.00,,,0.26,Wunderground v.1.15,2014-01-02 20:50:00,
2014-01-02 15:51:00,43.5,42.7,29.69,WSW,257,0.0,0.0,97,0.00,,,0.26,Wunderground v.1.15,2014-01-02 20:51:00,
2014-01-02 15:53:00,43.5,42.7,29.69,WSW,257,0.0,0.0,97,0.00,,,0.26,Wunderground v.1.15,2014-01-02 20:53:00,
2014-01-02 15:55:00,43.5,42.7,29.68,WSW,257,0.0,0.0,97,0.00,,,0.27,Wunderground v.1.15,2014-01-02 20:55:00,
2014-01-02 15:56:00,43.6,42.8,29.68,WSW,257,0.0,0.0,97,0.00,,,0.27,Wunderground v.1.15,2014-01-02 20:56:00,
2014-01-02 15:58:00,43.5,42.7,29.68,WSW,257,0.0,0.0,97,0.00,,,0.27,Wunderground v.1.15,2014-01-02 20:58:00,
2014-01-02 16:00:00,43.5,42.7,29.68,WSW,257,0.0,0.0,97,0.00,,,0.27,Wunderground v.1.15,2014-01-02 21:00:00,
2014-01-02 16:01:00,43.6,42.8,29.68,WSW,257,0.0,0.0,97,0.00,,,0.27,Wunderground v.1.15,2014-01-02 21:01:00,
2014-01-02 16:03:00,43.6,42.8,29.68,WSW,257,0.0,0.0,97,0.07,,,0.28,Wunderground v.1.15,2014-01-02 21:03:00,
2014-01-02 16:04:00,43.6,42.8,29.68,WSW,257,0.0,0.0,97,0.07,,,0.28,Wunderground v.1.15,2014-01-02 21:04:00,
2014-01-02 16:05:00,43.6,42.8,29.68,WSW,257,0.0,0.0,97,0.07,,,0.28,Wunderground v.1.15,2014-01-02 21:05:00,
2014-01-02 16:06:00,43.6,42.8,29.68,WSW,257,0.0,0.0,97,0.07,,,0.28,Wunderground v.1.15,2014-01-02 21:06:00,
2014-01-02 16:09:00,43.7,42.9,29.68,WSW,257,0.0,0.0,97,0.07,,,0.28,Wunderground v.1.15,2014-01-02 21:09:00,
2014-01-02 16:10:00,43.7,42.9,29.68,WSW,257,0.0,0.0,97,0.07,,,0.28,Wunderground v.1.15,2014-01-02 21:10:00,
2014-01-02 16:11:00,43.6,42.8,29.68,WSW,257,0.0,0.0,97,0.07,,,0.28,Wunderground v.1.15,2014-01-02 21:11:00,
2014-01-02 16:14:00,43.6,42.8,29.68,WSW,257,0.0,0.0,97,0.05,,,0.28,Wunderground v.1.15,2014-01-02 21:14:00,
2014-01-02 16:15:00,43.7,42.9,29.68,WSW,257,0.0,0.0,97,0.05,,,0.29,Wunderground v.1.15,2014-01-02 21:15:00,
2014-01-02 16:16:00,43.7,42.9,29.68,WSW,257,0.0,0.0,97,0.05,,,0.29,Wunderground v.1.15,2014-01-02 21:16:00,
2014-01-02 16:19:00,43.7,42.9,29.68,WSW,257,0.0,0.0,97,0.05,,,0.29,Wunderground v.1.15,2014-01-02 21:19:00,
2014-01-02 16:20:00,43.8,43.0,29.68,WSW,257,0.0,0.0,97,0.05,,,0.29,Wunderground v.1.15,2014-01-02 21:20:00,
2014-01-02 16:21:00,43.8,43.3,29.69,WSW,257,0.0,0.0,98,0.05,,,0.29,Wunderground v.1.15,2014-01-02 21:21:00,
2014-01-02 16:22:00,43.8,43.3,29.69,WSW,257,0.0,0.0,98,0.05,,,0.29,Wunderground v.1.15,2014-01-02 21:22:00,
2014-01-02 16:24:00,43.9,43.4,29.69,WSW,252,0.0,1.0,98,0.05,,,0.29,Wunderground v.1.15,2014-01-02 21:24:00,
2014-01-02 16:25:00,43.9,43.4,29.69,WSW,253,0.0,1.0,98,0.05,,,0.29,Wunderground v.1.15,2014-01-02 21:25:00,
2014-01-02 16:26:00,43.9,43.4,29.68,WSW,253,0.0,1.0,98,0.05,,,0.29,Wunderground v.1.15,2014-01-02 21:26:00,
2014-01-02 16:27:00,43.9,43.4,29.69,WSW,253,0.0,1.0,98,0.05,,,0.29,Wunderground v.1.15,2014-01-02 21:27:00,
2014-01-02 16:28:00,44.0,43.5,29.69,WSW,253,0.0,1.0,98,0.05,,,0.30,Wunderground v.1.15,2014-01-02 21:28:00,
2014-01-02 16:29:00,44.0,43.5,29.68,WSW,253,0.0,1.0,98,0.05,,,0.30,Wunderground v.1.15,2014-01-02 21:29:00,
2014-01-02 16:30:00,44.0,43.5,29.68,WSW,253,0.0,0.0,98,0.05,,,0.30,Wunderground v.1.15,2014-01-02 21:30:00,
2014-01-02 16:31:00,44.0,43.5,29.68,SW,235,0.0,1.0,98,0.05,,,0.30,Wunderground v.1.15,2014-01-02 21:31:00,
2014-01-02 16:32:00,44.0,43.5,29.68,SW,232,1.0,1.0,98,0.05,,,0.30,Wunderground v.1.15,2014-01-02 21:32:00,
2014-01-02 16:33:00,44.1,43.6,29.68,SW,234,1.0,1.0,98,0.05,,,0.30,Wunderground v.1.15,2014-01-02 21:33:00,
2014-01-02 16:35:00,44.1,43.6,29.69,WSW,238,1.0,2.0,98,0.05,,,0.30,Wunderground v.1.15,2014-01-02 21:35:00,
2014-01-02 16:36:00,44.1,43.6,29.69,WSW,237,0.0,2.0,98,0.05,,,0.30,Wunderground v.1.15,2014-01-02 21:36:00,
2014-01-02 16:37:00,44.1,43.6,29.69,WSW,238,0.0,2.0,98,0.05,,,0.30,Wunderground v.1.15,2014-01-02 21:37:00,
2014-01-02 16:38:00,44.1,43.6,29.69,WSW,237,0.0,2.0,98,0.05,,,0.30,Wunderground v.1.15,2014-01-02 21:38:00,
2014-01-02 16:40:00,44.1,43.6,29.69,WSW,249,1.0,1.0,98,0.05,,,0.30,Wunderground v.1.15,2014-01-02 21:40:00,
2014-01-02 16:41:00,44.1,43.6,29.69,West,281,1.0,2.0,98,0.04,,,0.30,Wunderground v.1.15,2014-01-02 21:41:00,
2014-01-02 16:42:00,44.1,43.6,29.69,West,273,0.0,2.0,98,0.04,,,0.30,Wunderground v.1.15,2014-01-02 21:42:00,
2014-01-02 16:43:00,44.2,43.7,29.69,West,273,1.0,2.0,98,0.04,,,0.31,Wunderground v.1.15,2014-01-02 21:43:00,
2014-01-02 16:44:00,44.1,43.6,29.69,West,269,2.0,2.0,98,0.04,,,0.31,Wunderground v.1.15,2014-01-02 21:44:00,
2014-01-02 16:45:00,44.1,43.6,29.69,West,269,0.0,2.0,98,0.04,,,0.31,Wunderground v.1.15,2014-01-02 21:45:00,
2014-01-02 16:46:00,44.2,43.7,29.69,West,269,0.0,2.0,98,0.04,,,0.31,Wunderground v.1.15,2014-01-02 21:46:00,
2014-01-02 16:47:00,44.2,43.7,29.69,West,269,0.0,2.0,98,0.04,,,0.31,Wunderground v.1.15,2014-01-02 21:47:00,
2014-01-02 16:48:00,44.2,43.7,29.69,West,269,0.0,2.0,98,0.04,,,0.31,Wunderground v.1.15,2014-01-02 21:48:00,
2014-01-02 16:49:00,44.2,43.7,29.69,West,269,0.0,2.0,98,0.04,,,0.31,Wunderground v.1.15,2014-01-02 21:49:00,
2014-01-02 16:50:00,44.1,43.6,29.69,West,269,0.0,0.0,98,0.04,,,0.31,Wunderground v.1.15,2014-01-02 21:50:00,
2014-01-02 16:51:00,44.2,43.7,29.69,West,269,0.0,0.0,98,0.04,,,0.31,Wunderground v.1.15,2014-01-02 21:51:00,
2014-01-02 16:52:00,44.1,43.6,29.69,West,269,0.0,0.0,98,0.04,,,0.31,Wunderground v.1.15,2014-01-02 21:52:00,
2014-01-02 16:54:00,44.1,43.6,29.69,West,269,0.0,0.0,98,0.04,,,0.31,Wunderground v.1.15,2014-01-02 21:54:00,
2014-01-02 16:55:00,44.1,43.6,29.69,West,269,0.0,0.0,98,0.04,,,0.31,Wunderground v.1.15,2014-01-02 21:55:00,
2014-01-02 16:56:00,44.1,43.6,29.68,West,269,0.0,0.0,98,0.04,,,0.32,Wunderground v.1.15,2014-01-02 21:56:00,
2014-01-02 16:57:00,44.1,43.6,29.68,West,269,0.0,0.0,98,0.04,,,0.32,Wunderground v.1.15,2014-01-02 21:57:00,
2014-01-02 16:58:00,44.1,43.6,29.68,West,269,0.0,0.0,98,0.04,,,0.32,Wunderground v.1.15,2014-01-02 21:58:00,
2014-01-02 16:59:00,44.1,43.6,29.68,ENE,68,0.0,0.0,98,0.04,,,0.32,Wunderground v.1.15,2014-01-02 21:59:00,
2014-01-02 17:00:00,44.1,43.6,29.68,ENE,68,0.0,0.0,98,0.04,,,0.32,Wunderground v.1.15,2014-01-02 22:00:00,
2014-01-02 17:01:00,44.1,43.3,29.68,ENE,68,0.0,0.0,97,0.04,,,0.32,Wunderground v.1.15,2014-01-02 22:01:00,
2014-01-02 17:02:00,44.1,43.6,29.68,NW,305,0.0,0.0,98,0.04,,,0.32,Wunderground v.1.15,2014-01-02 22:02:00,
2014-01-02 17:03:00,44.0,43.2,29.69,West,278,0.0,0.0,97,0.04,,,0.32,Wunderground v.1.15,2014-01-02 22:03:00,
2014-01-02 17:04:00,44.0,43.2,29.69,WSW,249,2.0,3.0,97,0.04,,,0.32,Wunderground v.1.15,2014-01-02 22:04:00,
2014-01-02 17:05:00,43.9,43.1,29.69,West,278,2.0,3.0,97,0.04,,,0.32,Wunderground v.1.15,2014-01-02 22:05:00,
2014-01-02 17:06:00,43.8,43.0,29.69,WNW,283,2.0,3.0,97,0.04,,,0.32,Wunderground v.1.15,2014-01-02 22:06:00,
2014-01-02 17:07:00,43.8,43.0,29.69,WNW,292,1.0,3.0,97,0.04,,,0.32,Wunderground v.1.15,2014-01-02 22:07:00,
2014-01-02 17:08:00,43.7,42.9,29.69,NE,42,4.0,4.0,97,0.04,,,0.32,Wunderground v.1.15,2014-01-02 22:08:00,
2014-01-02 17:09:00,43.4,42.6,29.69,West,260,1.0,4.0,97,0.04,,,0.32,Wunderground v.1.15,2014-01-02 22:09:00,
2014-01-02 17:10:00,43.4,42.6,29.69,West,273,1.0,2.0,97,0.04,,,0.32,Wunderground v.1.15,2014-01-02 22:10:00,
2014-01-02 17:11:00,43.1,42.3,29.69,WNW,284,1.0,2.0,97,0.04,,,0.32,Wunderground v.1.15,2014-01-02 22:11:00,
2014-01-02 17:12:00,43.1,42.0,29.69,NNE,19,1.0,2.0,96,0.04,,,0.32,Wunderground v.1.15,2014-01-02 22:12:00,
2014-01-02 17:14:00,42.8,41.7,29.69,East,100,1.0,3.0,96,0.00,,,0.32,Wunderground v.1.15,2014-01-02 22:14:00,
2014-01-02 17:15:00,42.6,41.5,29.69,WNW,283,3.0,3.0,96,0.00,,,0.32,Wunderground v.1.15,2014-01-02 22:15:00,
2014-01-02 17:16:00,42.3,41.2,29.70,North,349,2.0,7.0,96,0.00,,,0.32,Wunderground v.1.15,2014-01-02 22:16:00,
2014-01-02 17:17:00,42.1,41.0,29.69,WNW,288,1.0,7.0,96,0.00,,,0.32,Wunderground v.1.15,2014-01-02 22:17:00,
2014-01-02 17:19:00,41.9,40.8,29.69,SW,232,0.0,7.0,96,0.00,,,0.33,Wunderground v.1.15,2014-01-02 22:19:00,
2014-01-02 17:20:00,41.8,40.7,29.69,NW,315,4.0,6.0,96,0.00,,,0.33,Wunderground v.1.15,2014-01-02 22:20:00,
2014-01-02 17:22:00,41.5,40.4,29.70,West,273,2.0,6.0,96,0.00,,,0.33,Wunderground v.1.15,2014-01-02 22:22:00,
2014-01-02 17:23:00,41.4,40.3,29.70,West,278,0.0,6.0,96,0.00,,,0.33,Wunderground v.1.15,2014-01-02 22:23:00,
2014-01-02 17:25:00,41.2,40.1,29.70,North,357,0.0,6.0,96,0.00,,,0.33,Wunderground v.1.15,2014-01-02 22:25:00,
2014-01-02 17:26:00,41.1,40.0,29.70,WNW,303,0.0,6.0,96,0.00,,,0.33,Wunderground v.1.15,2014-01-02 22:26:00,
2014-01-02 17:27:00,41.0,39.9,29.70,WNW,302,0.0,6.0,96,0.00,,,0.33,Wunderground v.1.15,2014-01-02 22:27:00,
2014-01-02 17:28:00,41.0,39.9,29.70,WSW,237,1.0,6.0,96,0.00,,,0.33,Wunderground v.1.15,2014-01-02 22:28:00,
2014-01-02 17:30:00,40.8,39.7,29.70,SW,217,0.0,2.0,96,0.05,,,0.34,Wunderground v.1.15,2014-01-02 22:30:00,
2014-01-02 17:32:00,40.8,39.7,29.69,NW,325,1.0,2.0,96,0.05,,,0.34,Wunderground v.1.15,2014-01-02 22:32:00,
2014-01-02 17:33:00,40.7,39.6,29.69,NW,322,0.0,2.0,96,0.05,,,0.34,Wunderground v.1.15,2014-01-02 22:33:00,
2014-01-02 17:35:00,40.6,39.5,29.69,NW,322,0.0,2.0,96,0.05,,,0.34,Wunderground v.1.15,2014-01-02 22:35:00,
2014-01-02 17:37:00,40.6,39.8,29.69,ENE,67,1.0,2.0,97,0.05,,,0.34,Wunderground v.1.15,2014-01-02 22:37:00,
2014-01-02 17:38:00,40.6,39.8,29.69,ENE,67,1.0,2.0,97,0.05,,,0.34,Wunderground v.1.15,2014-01-02 22:38:00,
2014-01-02 17:40:00,40.5,39.7,29.69,NNW,338,0.0,0.0,97,0.06,,,0.35,Wunderground v.1.15,2014-01-02 22:40:00,
2014-01-02 17:41:00,40.5,39.7,29.69,NNW,337,0.0,0.0,97,0.06,,,0.35,Wunderground v.1.15,2014-01-02 22:41:00,
2014-01-02 17:42:00,40.5,39.7,29.69,NNE,25,0.0,0.0,97,0.06,,,0.35,Wunderground v.1.15,2014-01-02 22:42:00,
2014-01-02 17:43:00,40.5,39.7,29.69,NNE,25,0.0,0.0,97,0.06,,,0.35,Wunderground v.1.15,2014-01-02 22:43:00,
2014-01-02 17:44:00,40.5,39.7,29.69,WNW,296,0.0,0.0,97,0.06,,,0.35,Wunderground v.1.15,2014-01-02 22:44:00,
2014-01-02 17:46:00,40.5,39.7,29.69,WNW,295,0.0,1.0,97,0.06,,,0.35,Wunderground v.1.15,2014-01-02 22:46:00,
2014-01-02 17:47:00,40.4,39.6,29.69,WNW,295,0.0,1.0,97,0.06,,,0.35,Wunderground v.1.15,2014-01-02 22:47:00,
2014-01-02 17:48:00,40.4,39.6,29.69,WNW,295,0.0,1.0,97,0.06,,,0.35,Wunderground v.1.15,2014-01-02 22:48:00,
2014-01-02 17:49:00,40.3,39.5,29.69,WNW,295,0.0,1.0,97,0.06,,,0.35,Wunderground v.1.15,2014-01-02 22:49:00,
2014-01-02 17:50:00,40.3,39.5,29.69,WNW,295,0.0,0.0,97,0.06,,,0.35,Wunderground v.1.15,2014-01-02 22:50:00,
2014-01-02 17:51:00,40.3,39.5,29.69,WNW,295,0.0,0.0,97,0.05,,,0.35,Wunderground v.1.15,2014-01-02 22:51:00,
2014-01-02 17:52:00,40.3,39.5,29.69,WNW,295,0.0,0.0,97,0.05,,,0.35,Wunderground v.1.15,2014-01-02 22:52:00,
2014-01-02 17:54:00,40.3,39.5,29.69,WSW,248,2.0,2.0,97,0.04,,,0.35,Wunderground v.1.15,2014-01-02 22:54:00,
2014-01-02 17:55:00,40.3,39.5,29.69,WSW,256,0.0,2.0,97,0.04,,,0.35,Wunderground v.1.15,2014-01-02 22:55:00,
2014-01-02 17:56:00,40.3,39.5,29.69,WSW,255,0.0,2.0,97,0.04,,,0.35,Wunderground v.1.15,2014-01-02 22:56:00,
2014-01-02 17:57:00,40.2,39.4,29.69,WSW,256,0.0,2.0,97,0.00,,,0.35,Wunderground v.1.15,2014-01-02 22:57:00,
2014-01-02 17:58:00,40.3,39.5,29.69,WSW,256,0.0,2.0,97,0.00,,,0.35,Wunderground v.1.15,2014-01-02 22:58:00,
2014-01-02 17:59:00,40.3,39.5,29.69,WSW,256,0.0,2.0,97,0.00,,,0.35,Wunderground v.1.15,2014-01-02 22:59:00,
2014-01-02 18:00:00,40.2,39.4,29.68,WSW,256,0.0,0.0,97,0.00,,,0.35,Wunderground v.1.15,2014-01-02 23:00:00,
2014-01-02 18:01:00,40.2,39.4,29.68,WSW,256,0.0,0.0,97,0.00,,,0.35,Wunderground v.1.15,2014-01-02 23:01:00,
2014-01-02 18:02:00,40.2,39.4,29.68,WSW,256,0.0,0.0,97,0.00,,,0.36,Wunderground v.1.15,2014-01-02 23:02:00,
2014-01-02 18:03:00,40.2,39.4,29.69,WSW,256,0.0,0.0,97,0.00,,,0.36,Wunderground v.1.15,2014-01-02 23:03:00,
2014-01-02 18:04:00,40.2,39.4,29.69,WSW,256,0.0,0.0,97,0.00,,,0.36,Wunderground v.1.15,2014-01-02 23:04:00,
2014-01-02 18:05:00,40.2,39.4,29.69,WSW,255,1.0,1.0,97,0.00,,,0.36,Wunderground v.1.15,2014-01-02 23:05:00,
2014-01-02 18:06:00,40.2,39.4,29.70,WSW,255,1.0,1.0,97,0.00,,,0.36,Wunderground v.1.15,2014-01-02 23:06:00,
2014-01-02 18:07:00,40.2,39.4,29.70,WSW,255,0.0,1.0,97,0.00,,,0.36,Wunderground v.1.15,2014-01-02 23:07:00,
2014-01-02 18:08:00,40.2,39.4,29.70,WSW,255,0.0,1.0,97,0.00,,,0.36,Wunderground v.1.15,2014-01-02 23:08:00,
2014-01-02 18:09:00,40.2,39.4,29.70,WSW,255,0.0,1.0,97,0.00,,,0.36,Wunderground v.1.15,2014-01-02 23:09:00,
2014-01-02 18:11:00,40.2,39.4,29.70,WSW,255,0.0,0.0,97,0.00,,,0.36,Wunderground v.1.15,2014-01-02 23:11:00,
2014-01-02 18:12:00,40.2,39.4,29.69,WSW,255,0.0,0.0,97,0.00,,,0.36,Wunderground v.1.15,2014-01-02 23:12:00,
2014-01-02 18:13:00,40.2,39.4,29.68,NW,315,0.0,0.0,97,0.00,,,0.36,Wunderground v.1.15,2014-01-02 23:13:00,
2014-01-02 18:14:00,40.2,39.4,29.67,NW,315,0.0,0.0,97,0.00,,,0.36,Wunderground v.1.15,2014-01-02 23:14:00,
2014-01-02 18:15:00,40.2,39.4,29.67,NW,315,0.0,0.0,97,0.00,,,0.36,Wunderground v.1.15,2014-01-02 23:15:00,
2014-01-02 18:17:00,40.2,39.4,29.67,NW,315,0.0,0.0,97,0.00,,,0.36,Wunderground v.1.15,2014-01-02 23:17:00,
2014-01-02 18:19:00,40.1,39.3,29.68,NW,314,0.0,0.0,97,0.00,,,0.36,Wunderground v.1.15,2014-01-02 23:19:00,
2014-01-02 18:20:00,40.1,39.3,29.68,NW,315,0.0,0.0,97,0.00,,,0.36,Wunderground v.1.15,2014-01-02 23:20:00,
2014-01-02 18:22:00,40.1,39.3,29.68,NW,315,0.0,0.0,97,0.00,,,0.36,Wunderground v.1.15,2014-01-02 23:22:00,
2014-01-02 18:23:00,40.1,39.3,29.68,NW,315,0.0,0.0,97,0.00,,,0.36,Wunderground v.1.15,2014-01-02 23:23:00,
2014-01-02 18:24:00,40.1,39.3,29.68,WSW,248,0.0,0.0,97,0.00,,,0.36,Wunderground v.1.15,2014-01-02 23:24:00,
2014-01-02 18:25:00,40.1,39.3,29.68,WSW,248,0.0,0.0,97,0.00,,,0.36,Wunderground v.1.15,2014-01-02 23:25:00,
2014-01-02 18:27:00,40.1,39.3,29.68,WSW,248,0.0,0.0,97,0.00,,,0.36,Wunderground v.1.15,2014-01-02 23:27:00,
2014-01-02 18:28:00,40.1,39.3,29.68,WSW,248,0.0,0.0,97,0.00,,,0.36,Wunderground v.1.15,2014-01-02 23:28:00,
2014-01-02 18:29:00,40.1,39.3,29.68,WSW,248,0.0,0.0,97,0.00,,,0.36,Wunderground v.1.15,2014-01-02 23:29:00,
2014-01-02 18:30:00,40.1,39.3,29.68,WSW,248,0.0,0.0,97,0.00,,,0.36,Wunderground v.1.15,2014-01-02 23:30:00,
2014-01-02 18:31:00,40.1,39.3,29.68,WSW,248,0.0,0.0,97,0.00,,,0.36,Wunderground v.1.15,2014-01-02 23:31:00,
2014-01-02 18:32:00,40.1,39.3,29.68,WSW,248,0.0,0.0,97,0.00,,,0.36,Wunderground v.1.15,2014-01-02 23:32:00,
2014-01-02 18:33:00,40.1,39.3,29.68,WSW,248,0.0,0.0,97,0.00,,,0.36,Wunderground v.1.15,2014-01-02 23:33:00,
2014-01-02 18:34:00,40.1,39.3,29.68,WSW,248,0.0,0.0,97,0.00,,,0.36,Wunderground v.1.15,2014-01-02 23:34:00,
2014-01-02 18:35:00,40.1,39.3,29.68,WSW,248,0.0,0.0,97,0.00,,,0.36,Wunderground v.1.15,2014-01-02 23:35:00,
2014-01-02 18:36:00,40.0,39.2,29.68,WSW,248,0.0,0.0,97,0.00,,,0.36,Wunderground v.1.15,2014-01-02 23:36:00,
2014-01-02 18:37:00,40.0,39.2,29.68,WSW,248,0.0,0.0,97,0.00,,,0.36,Wunderground v.1.15,2014-01-02 23:37:00,
2014-01-02 18:38:00,40.0,39.2,29.68,WSW,248,0.0,0.0,97,0.00,,,0.36,Wunderground v.1.15,2014-01-02 23:38:00,
2014-01-02 18:39:00,40.0,39.2,29.68,WSW,248,0.0,0.0,97,0.00,,,0.36,Wunderground v.1.15,2014-01-02 23:39:00,
2014-01-02 18:40:00,40.0,39.2,29.68,WSW,248,0.0,0.0,97,0.00,,,0.36,Wunderground v.1.15,2014-01-02 23:40:00,
2014-01-02 18:41:00,40.0,39.2,29.68,WSW,248,0.0,0.0,97,0.00,,,0.36,Wunderground v.1.15,2014-01-02 23:41:00,
2014-01-02 18:42:00,40.0,39.2,29.68,WSW,248,0.0,0.0,97,0.00,,,0.36,Wunderground v.1.15,2014-01-02 23:42:00,
2014-01-02 18:43:00,40.0,39.2,29.68,WSW,248,0.0,0.0,97,0.00,,,0.36,Wunderground v.1.15,2014-01-02 23:43:00,
2014-01-02 18:44:00,40.0,39.2,29.68,WSW,248,0.0,0.0,97,0.00,,,0.36,Wunderground v.1.15,2014-01-02 23:44:00,
2014-01-02 18:45:00,40.0,39.2,29.68,WSW,248,0.0,0.0,97,0.00,,,0.36,Wunderground v.1.15,2014-01-02 23:45:00,
2014-01-02 18:46:00,40.0,39.5,29.68,WSW,248,0.0,0.0,98,0.00,,,0.36,Wunderground v.1.15,2014-01-02 23:46:00,
2014-01-02 18:48:00,40.0,39.5,29.68,WSW,248,0.0,0.0,98,0.00,,,0.36,Wunderground v.1.15,2014-01-02 23:48:00,
2014-01-02 18:50:00,40.0,39.5,29.69,WSW,248,0.0,0.0,98,0.00,,,0.36,Wunderground v.1.15,2014-01-02 23:50:00,
2014-01-02 18:51:00,40.0,39.5,29.68,WSW,248,0.0,0.0,98,0.00,,,0.36,Wunderground v.1.15,2014-01-02 23:51:00,
2014-01-02 18:53:00,40.0,39.5,29.69,WSW,238,1.0,1.0,98,0.00,,,0.36,Wunderground v.1.15,2014-01-02 23:53:00,
2014-01-02 18:55:00,40.0,39.5,29.68,WSW,238,0.0,1.0,98,0.00,,,0.36,Wunderground v.1.15,2014-01-02 23:55:00,
2014-01-02 18:57:00,40.0,39.5,29.68,WSW,237,0.0,1.0,98,0.00,,,0.36,Wunderground v.1.15,2014-01-02 23:57:00,
2014-01-02 18:58:00,40.0,39.5,29.68,WSW,238,0.0,1.0,98,0.00,,,0.36,Wunderground v.1.15,2014-01-02 23:58:00,
2014-01-02 19:00:00,40.0,39.5,29.68,WSW,237,0.0,0.0,98,0.00,,,0.36,Wunderground v.1.15,2014-01-03 00:00:00,
2014-01-02 19:01:00,40.0,39.5,29.68,WSW,238,0.0,0.0,98,0.00,,,0.36,Wunderground v.1.15,2014-01-03 00:01:00,
2014-01-02 19:02:00,40.0,39.5,29.68,WSW,237,0.0,0.0,98,0.00,,,0.36,Wunderground v.1.15,2014-01-03 00:02:00,
2014-01-02 19:04:00,40.0,39.5,29.68,WSW,238,0.0,0.0,98,0.00,,,0.36,Wunderground v.1.15,2014-01-03 00:04:00,
2014-01-02 19:05:00,40.0,39.5,29.68,SW,226,1.0,1.0,98,0.00,,,0.36,Wunderground v.1.15,2014-01-03 00:05:00,
2014-01-02 19:06:00,40.0,39.5,29.68,SW,226,1.0,1.0,98,0.00,,,0.36,Wunderground v.1.15,2014-01-03 00:06:00,
2014-01-02 19:07:00,40.0,39.5,29.68,SW,226,0.0,1.0,98,0.00,,,0.36,Wunderground v.1.15,2014-01-03 00:07:00,
2014-01-02 19:09:00,40.0,39.5,29.68,SW,226,1.0,2.0,98,0.00,,,0.36,Wunderground v.1.15,2014-01-03 00:09:00,
2014-01-02 19:10:00,40.0,39.5,29.69,SW,226,0.0,1.0,98,0.00,,,0.36,Wunderground v.1.15,2014-01-03 00:10:00,
2014-01-02 19:11:00,40.0,39.5,29.68,SW,226,0.0,1.0,98,0.00,,,0.36,Wunderground v.1.15,2014-01-03 00:11:00,
2014-01-02 19:12:00,40.0,39.5,29.68,SW,226,0.0,1.0,98,0.00,,,0.36,Wunderground v.1.15,2014-01-03 00:12:00,
2014-01-02 19:14:00,40.0,39.5,29.68,SW,233,1.0,2.0,98,0.00,,,0.36,Wunderground v.1.15,2014-01-03 00:14:00,
2014-01-02 19:15:00,40.0,39.5,29.68,SW,233,0.0,2.0,98,0.00,,,0.36,Wunderground v.1.15,2014-01-03 00:15:00,
2014-01-02 19:16:00,40.0,39.5,29.68,WSW,245,0.0,2.0,98,0.00,,,0.36,Wunderground v.1.15,2014-01-03 00:16:00,
2014-01-02 19:17:00,40.0,39.5,29.69,WSW,245,0.0,2.0,98,0.00,,,0.36,Wunderground v.1.15,2014-01-03 00:17:00,
2014-01-02 19:19:00,40.0,39.5,29.68,SW,232,1.0,2.0,98,0.00,,,0.36,Wunderground v.1.15,2014-01-03 00:19:00,
2014-01-02 19:20:00,40.0,39.5,29.68,SW,226,2.0,2.0,98,0.00,,,0.36,Wunderground v.1.15,2014-01-03 00:20:00,
2014-01-02 19:21:00,40.0,39.5,29.68,WSW,253,1.0,2.0,98,0.00,,,0.36,Wunderground v.1.15,2014-01-03 00:21:00,
2014-01-02 19:22:00,40.0,39.5,29.68,WSW,238,1.0,2.0,98,0.00,,,0.36,Wunderground v.1.15,2014-01-03 00:22:00,
2014-01-02 19:24:00,40.0,39.5,29.68,West,265,2.0,2.0,98,0.00,,,0.36,Wunderground v.1.15,2014-01-03 00:24:00,
2014-01-02 19:26:00,40.0,39.5,29.68,WSW,250,1.0,2.0,98,0.00,,,0.36,Wunderground v.1.15,2014-01-03 00:26:00,
2014-01-02 19:27:00,40.0,39.5,29.68,WSW,250,0.0,2.0,98,0.00,,,0.36,Wunderground v.1.15,2014-01-03 00:27:00,
2014-01-02 19:30:00,40.0,39.5,29.68,SW,224,2.0,2.0,98,0.00,,,0.36,Wunderground v.1.15,2014-01-03 00:30:00,
2014-01-02 19:31:00,40.0,39.5,29.68,SW,232,1.0,2.0,98,0.00,,,0.36,Wunderground v.1.15,2014-01-03 00:31:00,
2014-01-02 19:32:00,40.0,39.5,29.68,West,262,2.0,2.0,98,0.00,,,0.36,Wunderground v.1.15,2014-01-03 00:32:00,
2014-01-02 19:36:00,39.9,39.4,29.68,WSW,248,1.0,2.0,98,0.00,,,0.36,Wunderground v.1.15,2014-01-03 00:36:00,
2014-01-02 19:37:00,40.0,39.5,29.68,West,263,1.0,3.0,98,0.00,,,0.36,Wunderground v.1.15,2014-01-03 00:37:00,
2014-01-02 19:41:00,39.9,39.4,29.68,WNW,300,0.0,1.0,98,0.00,,,0.36,Wunderground v.1.15,2014-01-03 00:41:00,
2014-01-02 19:42:00,39.9,39.4,29.68,WNW,300,0.0,1.0,98,0.00,,,0.36,Wunderground v.1.15,2014-01-03 00:42:00,
2014-01-02 19:43:00,39.9,39.4,29.68,WSW,252,2.0,2.0,98,0.00,,,0.36,Wunderground v.1.15,2014-01-03 00:43:00,
2014-01-02 19:47:00,39.8,39.3,29.68,WNW,286,2.0,2.0,98,0.00,,,0.36,Wunderground v.1.15,2014-01-03 00:47:00,
2014-01-02 19:48:00,39.8,39.3,29.68,West,266,1.0,2.0,98,0.00,,,0.36,Wunderground v.1.15,2014-01-03 00:48:00,
2014-01-02 19:52:00,39.7,39.2,29.68,West,260,1.0,2.0,98,0.00,,,0.36,Wunderground v.1.15,2014-01-03 00:52:00,
2014-01-02 19:53:00,39.7,39.2,29.68,SW,214,1.0,2.0,98,0.00,,,0.36,Wunderground v.1.15,2014-01-03 00:53:00,
2014-01-02 19:57:00,39.7,39.2,29.68,SW,235,1.0,2.0,98,0.00,,,0.36,Wunderground v.1.15,2014-01-03 00:57:00,
2014-01-02 19:58:00,39.7,39.2,29.68,SW,229,3.0,3.0,98,0.00,,,0.36,Wunderground v.1.15,2014-01-03 00:58:00,
2014-01-02 19:59:00,39.7,39.2,29.68,WSW,242,0.0,3.0,98,0.00,,,0.36,Wunderground v.1.15,2014-01-03 00:59:00,
2014-01-02 20:02:00,39.6,39.1,29.68,West,264,1.0,2.0,98,0.00,,,0.36,Wunderground v.1.15,2014-01-03 01:02:00,
2014-01-02 20:03:00,39.6,39.1,29.68,West,264,1.0,2.0,98,0.00,,,0.36,Wunderground v.1.15,2014-01-03 01:03:00,
2014-01-02 20:04:00,39.6,39.1,29.68,SW,229,1.0,2.0,98,0.00,,,0.36,Wunderground v.1.15,2014-01-03 01:04:00,
2014-01-02 20:05:00,39.6,39.1,29.68,SW,229,0.0,2.0,98,0.00,,,0.36,Wunderground v.1.15,2014-01-03 01:05:00,
2014-01-02 20:08:00,39.7,39.2,29.68,WSW,245,1.0,4.0,98,0.00,,,0.36,Wunderground v.1.15,2014-01-03 01:08:00,
2014-01-02 20:09:00,39.7,39.2,29.68,SW,215,3.0,4.0,98,0.00,,,0.36,Wunderground v.1.15,2014-01-03 01:09:00,
2014-01-02 20:11:00,39.7,39.2,29.68,SW,229,2.0,2.0,98,0.00,,,0.36,Wunderground v.1.15,2014-01-03 01:11:00,
2014-01-02 20:13:00,39.7,39.2,29.68,West,280,3.0,4.0,98,0.00,,,0.36,Wunderground v.1.15,2014-01-03 01:13:00,
2014-01-02 20:14:00,39.7,39.2,29.68,WSW,257,4.0,4.0,98,0.00,,,0.36,Wunderground v.1.15,2014-01-03 01:14:00,
2014-01-02 20:16:00,39.8,39.3,29.69,WNW,283,1.0,4.0,98,0.00,,,0.36,Wunderground v.1.15,2014-01-03 01:16:00,
2014-01-02 20:18:00,39.8,39.3,29.69,WSW,255,1.0,4.0,98,0.00,,,0.36,Wunderground v.1.15,2014-01-03 01:18:00,
2014-01-02 20:19:00,39.8,39.3,29.69,WSW,255,0.0,4.0,98,0.00,,,0.36,Wunderground v.1.15,2014-01-03 01:19:00,
2014-01-02 20:20:00,39.8,39.3,29.69,West,266,1.0,2.0,98,0.00,,,0.36,Wunderground v.1.15,2014-01-03 01:20:00,
2014-01-02 20:22:00,39.8,39.3,29.69,West,274,1.0,2.0,98,0.00,,,0.36,Wunderground v.1.15,2014-01-03 01:22:00,
2014-01-02 20:24:00,39.9,39.4,29.69,SW,226,0.0,4.0,98,0.00,,,0.36,Wunderground v.1.15,2014-01-03 01:24:00,
2014-01-02 20:25:00,39.9,39.4,29.69,SW,221,2.0,4.0,98,0.00,,,0.36,Wunderground v.1.15,2014-01-03 01:25:00,
2014-01-02 20:27:00,39.8,39.3,29.69,WNW,285,2.0,4.0,98,0.00,,,0.36,Wunderground v.1.15,2014-01-03 01:27:00,
2014-01-02 20:29:00,39.9,39.4,29.69,NW,305,2.0,5.0,98,0.00,,,0.36,Wunderground v.1.15,2014-01-03 01:29:00,
2014-01-02 20:30:00,39.9,39.4,29.69,West,271,1.0,2.0,98,0.00,,,0.36,Wunderground v.1.15,2014-01-03 01:30:00,
2014-01-02 20:32:00,39.8,39.0,29.69,West,273,1.0,2.0,97,0.00,,,0.36,Wunderground v.1.15,2014-01-03 01:32:00,
2014-01-02 20:34:00,39.8,39.0,29.69,West,278,2.0,2.0,97,0.00,,,0.36,Wunderground v.1.15,2014-01-03 01:34:00,
2014-01-02 20:35:00,39.8,39.0,29.69,South,177,2.0,3.0,97,0.00,,,0.36,Wunderground v.1.15,2014-01-03 01:35:00,
2014-01-02 20:36:00,39.8,39.0,29.69,West,263,1.0,3.0,97,0.00,,,0.36,Wunderground v.1.15,2014-01-03 01:36:00,
2014-01-02 20:37:00,39.8,39.0,29.69,WSW,256,1.0,3.0,97,0.00,,,0.36,Wunderground v.1.15,2014-01-03 01:37:00,
2014-01-02 20:39:00,39.7,38.9,29.69,WSW,248,1.0,3.0,97,0.00,,,0.36,Wunderground v.1.15,2014-01-03 01:39:00,
2014-01-02 20:40:00,39.7,38.9,29.69,WSW,256,2.0,2.0,97,0.00,,,0.36,Wunderground v.1.15,2014-01-03 01:40:00,
2014-01-02 20:41:00,39.7,38.9,29.69,West,267,4.0,4.0,97,0.00,,,0.36,Wunderground v.1.15,2014-01-03 01:41:00,
2014-01-02 20:42:00,39.7,38.9,29.69,WSW,238,2.0,4.0,97,0.00,,,0.36,Wunderground v.1.15,2014-01-03 01:42:00,
2014-01-02 20:45:00,39.7,38.9,29.70,West,270,1.0,4.0,97,0.00,,,0.36,Wunderground v.1.15,2014-01-03 01:45:00,
2014-01-02 20:46:00,39.7,38.9,29.69,West,270,2.0,4.0,97,0.00,,,0.36,Wunderground v.1.15,2014-01-03 01:46:00,
2014-01-02 20:48:00,39.6,38.8,29.69,WSW,245,1.0,4.0,97,0.00,,,0.37,Wunderground v.1.15,2014-01-03 01:48:00,
2014-01-02 20:50:00,39.6,38.6,29.69,SW,236,1.0,2.0,96,0.00,,,0.37,Wunderground v.1.15,2014-01-03 01:50:00,
2014-01-02 20:51:00,39.6,38.6,29.69,West,274,3.0,5.0,96,0.00,,,0.37,Wunderground v.1.15,2014-01-03 01:51:00,
2014-01-02 20:53:00,39.6,38.6,29.70,WSW,245,2.0,5.0,96,0.00,,,0.37,Wunderground v.1.15,2014-01-03 01:53:00,
2014-01-02 20:55:00,39.6,38.6,29.70,West,263,2.0,5.0,96,0.00,,,0.37,Wunderground v.1.15,2014-01-03 01:55:00,
2014-01-02 20:57:00,39.6,38.3,29.70,West,266,2.0,5.0,95,0.00,,,0.37,Wunderground v.1.15,2014-01-03 01:57:00,
2014-01-02 20:58:00,39.5,38.2,29.70,SW,226,3.0,5.0,95,0.00,,,0.37,Wunderground v.1.15,2014-01-03 01:58:00,
2014-01-02 21:00:00,39.5,37.9,29.70,South,181,2.0,3.0,94,0.00,,,0.37,Wunderground v.1.15,2014-01-03 02:00:00,
2014-01-02 21:01:00,39.5,37.9,29.70,WNW,295,7.0,7.0,94,0.00,,,0.37,Wunderground v.1.15,2014-01-03 02:01:00,
2014-01-02 21:02:00,39.5,37.6,29.70,WNW,293,5.0,7.0,93,0.00,,,0.37,Wunderground v.1.15,2014-01-03 02:02:00,
2014-01-02 21:03:00,39.4,37.5,29.70,WSW,240,4.0,7.0,93,0.00,,,0.37,Wunderground v.1.15,2014-01-03 02:03:00,
2014-01-02 21:05:00,39.4,37.3,29.70,West,262,1.0,7.0,92,0.00,,,0.37,Wunderground v.1.15,2014-01-03 02:05:00,
2014-01-02 21:06:00,39.4,37.3,29.70,WSW,248,2.0,8.0,92,0.00,,,0.37,Wunderground v.1.15,2014-01-03 02:06:00,
2014-01-02 21:07:00,39.4,37.0,29.70,WNW,294,3.0,8.0,91,0.00,,,0.37,Wunderground v.1.15,2014-01-03 02:07:00,
2014-01-02 21:08:00,39.4,37.0,29.70,WSW,250,1.0,8.0,91,0.00,,,0.37,Wunderground v.1.15,2014-01-03 02:08:00,
2014-01-02 21:09:00,39.4,37.0,29.70,WSW,255,1.0,8.0,91,0.00,,,0.37,Wunderground v.1.15,2014-01-03 02:09:00,
2014-01-02 21:10:00,39.4,36.7,29.71,SW,224,6.0,7.0,90,0.00,,,0.37,Wunderground v.1.15,2014-01-03 02:10:00,
2014-01-02 21:11:00,39.3,36.6,29.71,West,276,6.0,7.0,90,0.00,,,0.37,Wunderground v.1.15,2014-01-03 02:11:00,
2014-01-02 21:12:00,39.3,36.6,29.71,West,273,3.0,7.0,90,0.00,,,0.37,Wunderground v.1.15,2014-01-03 02:12:00,
2014-01-02 21:13:00,39.3,36.3,29.71,WNW,284,2.0,7.0,89,0.00,,,0.37,Wunderground v.1.15,2014-01-03 02:13:00,
2014-01-02 21:14:00,39.3,36.3,29.71,West,267,3.0,7.0,89,0.00,,,0.37,Wunderground v.1.15,2014-01-03 02:14:00,
2014-01-02 21:16:00,39.2,35.9,29.71,West,281,1.0,7.0,88,0.00,,,0.37,Wunderground v.1.15,2014-01-03 02:16:00,
2014-01-02 21:17:00,39.2,35.9,29.71,WNW,300,2.0,7.0,88,0.00,,,0.37,Wunderground v.1.15,2014-01-03 02:17:00,
2014-01-02 21:18:00,39.2,35.9,29.71,SW,229,1.0,7.0,88,0.00,,,0.37,Wunderground v.1.15,2014-01-03 02:18:00,
2014-01-02 21:19:00,39.1,35.8,29.72,West,269,1.0,7.0,88,0.00,,,0.37,Wunderground v.1.15,2014-01-03 02:19:00,
2014-01-02 21:20:00,39.1,35.6,29.72,WSW,249,2.0,7.0,87,0.00,,,0.37,Wunderground v.1.15,2014-01-03 02:20:00,
2014-01-02 21:21:00,39.2,35.4,29.72,WNW,301,2.0,7.0,86,0.00,,,0.37,Wunderground v.1.15,2014-01-03 02:21:00,
2014-01-02 21:22:00,39.2,35.4,29.72,SW,233,3.0,7.0,86,0.00,,,0.37,Wunderground v.1.15,2014-01-03 02:22:00,
2014-01-02 21:23:00,39.2,35.1,29.72,WSW,250,5.0,7.0,85,0.00,,,0.37,Wunderground v.1.15,2014-01-03 02:23:00,
2014-01-02 21:24:00,39.2,35.1,29.72,SW,232,1.0,7.0,85,0.00,,,0.37,Wunderground v.1.15,2014-01-03 02:24:00,
2014-01-02 21:25:00,39.1,34.7,29.72,WNW,302,2.0,7.0,84,0.00,,,0.37,Wunderground v.1.15,2014-01-03 02:25:00,
2014-01-02 21:26:00,39.2,34.8,29.72,ENE,64,0.0,7.0,84,0.00,,,0.37,Wunderground v.1.15,2014-01-03 02:26:00,
2014-01-02 21:27:00,39.2,34.8,29.72,SW,217,2.0,7.0,84,0.00,,,0.37,Wunderground v.1.15,2014-01-03 02:27:00,
2014-01-02 21:28:00,39.1,34.7,29.72,WNW,297,1.0,7.0,84,0.00,,,0.37,Wunderground v.1.15,2014-01-03 02:28:00,
2014-01-02 21:29:00,39.1,34.7,29.72,WNW,285,3.0,7.0,84,0.00,,,0.37,Wunderground v.1.15,2014-01-03 02:29:00,
2014-01-02 21:31:00,39.0,34.0,29.72,West,276,4.0,5.0,82,0.00,,,0.37,Wunderground v.1.15,2014-01-03 02:31:00,
2014-01-02 21:32:00,39.0,34.0,29.72,NW,325,2.0,5.0,82,0.00,,,0.37,Wunderground v.1.15,2014-01-03 02:32:00,
2014-01-02 21:33:00,39.0,34.0,29.72,SW,214,2.0,5.0,82,0.00,,,0.37,Wunderground v.1.15,2014-01-03 02:33:00,
2014-01-02 21:34:00,39.0,34.0,29.72,WNW,284,2.0,5.0,82,0.00,,,0.37,Wunderground v.1.15,2014-01-03 02:34:00,
2014-01-02 21:36:00,39.0,33.7,29.72,West,261,3.0,5.0,81,0.00,,,0.37,Wunderground v.1.15,2014-01-03 02:36:00,
2014-01-02 21:37:00,39.0,34.0,29.72,West,281,3.0,7.0,82,0.00,,,0.37,Wunderground v.1.15,2014-01-03 02:37:00,
2014-01-02 21:39:00,39.0,33.7,29.72,WNW,288,1.0,7.0,81,0.00,,,0.37,Wunderground v.1.15,2014-01-03 02:39:00,
2014-01-02 21:41:00,38.9,33.3,29.72,West,259,1.0,6.0,80,0.00,,,0.37,Wunderground v.1.15,2014-01-03 02:41:00,
2014-01-02 21:43:00,38.9,33.3,29.72,West,261,2.0,6.0,80,0.00,,,0.37,Wunderground v.1.15,2014-01-03 02:43:00,
2014-01-02 21:44:00,38.9,33.3,29.72,WNW,287,2.0,6.0,80,0.00,,,0.37,Wunderground v.1.15,2014-01-03 02:44:00,
2014-01-02 21:46:00,38.9,32.9,29.72,WSW,256,3.0,6.0,79,0.00,,,0.37,Wunderground v.1.15,2014-01-03 02:46:00,
2014-01-02 21:48:00,38.9,32.9,29.72,West,278,2.0,7.0,79,0.00,,,0.37,Wunderground v.1.15,2014-01-03 02:48:00,
2014-01-02 21:49:00,38.8,33.2,29.72,WSW,257,2.0,7.0,80,0.00,,,0.37,Wunderground v.1.15,2014-01-03 02:49:00,
2014-01-02 21:50:00,38.8,33.2,29.72,WNW,296,4.0,4.0,80,0.00,,,0.37,Wunderground v.1.15,2014-01-03 02:50:00,
2014-01-02 21:51:00,38.7,33.1,29.72,West,281,6.0,8.0,80,0.00,,,0.37,Wunderground v.1.15,2014-01-03 02:51:00,
2014-01-02 21:52:00,38.7,33.1,29.72,West,262,2.0,8.0,80,0.00,,,0.37,Wunderground v.1.15,2014-01-03 02:52:00,
2014-01-02 21:53:00,38.7,32.4,29.72,WNW,294,3.0,8.0,78,0.00,,,0.37,Wunderground v.1.15,2014-01-03 02:53:00,
2014-01-02 21:54:00,38.8,32.2,29.72,WSW,252,0.0,8.0,77,0.00,,,0.37,Wunderground v.1.15,2014-01-03 02:54:00,
2014-01-02 21:55:00,38.8,32.2,29.72,WSW,237,1.0,8.0,77,0.00,,,0.37,Wunderground v.1.15,2014-01-03 02:55:00,
2014-01-02 21:56:00,38.9,32.6,29.72,West,261,2.0,8.0,78,0.00,,,0.37,Wunderground v.1.15,2014-01-03 02:56:00,
2014-01-02 21:57:00,38.9,32.6,29.72,WSW,248,3.0,8.0,78,0.00,,,0.37,Wunderground v.1.15,2014-01-03 02:57:00,
2014-01-02 21:59:00,38.9,32.0,29.72,WSW,248,3.0,8.0,76,0.00,,,0.37,Wunderground v.1.15,2014-01-03 02:59:00,
2014-01-02 22:00:00,38.9,32.3,29.73,West,281,3.0,3.0,77,0.00,,,0.37,Wunderground v.1.15,2014-01-03 03:00:00,
2014-01-02 22:01:00,38.9,32.0,29.73,WNW,285,4.0,6.0,76,0.00,,,0.37,Wunderground v.1.15,2014-01-03 03:01:00,
2014-01-02 22:02:00,38.9,32.0,29.73,West,277,3.0,6.0,76,0.00,,,0.37,Wunderground v.1.15,2014-01-03 03:02:00,
2014-01-02 22:03:00,38.9,32.0,29.73,SW,226,2.0,6.0,76,0.00,,,0.37,Wunderground v.1.15,2014-01-03 03:03:00,
2014-01-02 22:05:00,38.7,32.1,29.73,NW,319,0.0,6.0,77,0.00,,,0.37,Wunderground v.1.15,2014-01-03 03:05:00,
2014-01-02 22:06:00,38.7,32.1,29.73,West,262,0.0,6.0,77,0.00,,,0.37,Wunderground v.1.15,2014-01-03 03:06:00,
2014-01-02 22:07:00,38.7,32.1,29.73,WNW,293,2.0,6.0,77,0.00,,,0.37,Wunderground v.1.15,2014-01-03 03:07:00,
2014-01-02 22:09:00,38.6,32.0,29.73,West,266,1.0,6.0,77,0.00,,,0.37,Wunderground v.1.15,2014-01-03 03:09:00,
2014-01-02 22:10:00,38.5,31.6,29.73,WSW,243,1.0,4.0,76,0.00,,,0.37,Wunderground v.1.15,2014-01-03 03:10:00,
2014-01-02 22:11:00,38.5,31.6,29.73,WNW,283,3.0,4.0,76,0.00,,,0.37,Wunderground v.1.15,2014-01-03 03:11:00,
2014-01-02 22:12:00,38.5,31.6,29.73,SW,215,4.0,5.0,76,0.00,,,0.37,Wunderground v.1.15,2014-01-03 03:12:00,
2014-01-02 22:13:00,38.5,31.6,29.73,West,280,6.0,6.0,76,0.00,,,0.37,Wunderground v.1.15,2014-01-03 03:13:00,
2014-01-02 22:15:00,38.5,31.6,29.73,West,271,2.0,6.0,76,0.00,,,0.37,Wunderground v.1.15,2014-01-03 03:15:00,
2014-01-02 22:16:00,38.5,31.3,29.73,WNW,294,1.0,6.0,75,0.00,,,0.37,Wunderground v.1.15,2014-01-03 03:16:00,
2014-01-02 22:17:00,38.5,31.3,29.73,WSW,252,1.0,6.0,75,0.00,,,0.37,Wunderground v.1.15,2014-01-03 03:17:00,
2014-01-02 22:18:00,38.5,31.6,29.73,West,266,3.0,6.0,76,0.00,,,0.37,Wunderground v.1.15,2014-01-03 03:18:00,
2014-01-02 22:20:00,38.5,31.3,29.73,SW,236,4.0,4.0,75,0.00,,,0.37,Wunderground v.1.15,2014-01-03 03:20:00,
2014-01-02 22:21:00,38.5,30.9,29.74,WSW,252,2.0,5.0,74,0.00,,,0.37,Wunderground v.1.15,2014-01-03 03:21:00,
2014-01-02 22:22:00,38.5,31.3,29.74,WNW,288,5.0,6.0,75,0.00,,,0.37,Wunderground v.1.15,2014-01-03 03:22:00,
2014-01-02 22:23:00,38.5,30.9,29.74,West,259,4.0,6.0,74,0.00,,,0.37,Wunderground v.1.15,2014-01-03 03:23:00,
2014-01-02 22:25:00,38.5,30.9,29.74,SW,235,8.0,8.0,74,0.00,,,0.37,Wunderground v.1.15,2014-01-03 03:25:00,
2014-01-02 22:27:00,38.6,30.7,29.74,NW,323,3.0,8.0,73,0.00,,,0.37,Wunderground v.1.15,2014-01-03 03:27:00,
2014-01-02 22:28:00,38.6,31.0,29.74,WNW,290,2.0,8.0,74,0.00,,,0.37,Wunderground v.1.15,2014-01-03 03:28:00,
2014-01-02 22:30:00,38.5,30.9,29.74,WSW,238,5.0,8.0,74,0.00,,,0.37,Wunderground v.1.15,2014-01-03 03:30:00,
2014-01-02 22:32:00,38.5,30.9,29.74,WNW,290,2.0,8.0,74,0.00,,,0.37,Wunderground v.1.15,2014-01-03 03:32:00,
2014-01-02 22:33:00,38.5,30.9,29.74,West,264,2.0,8.0,74,0.00,,,0.37,Wunderground v.1.15,2014-01-03 03:33:00,
2014-01-02 22:34:00,38.5,31.3,29.74,WNW,293,5.0,8.0,75,0.00,,,0.37,Wunderground v.1.15,2014-01-03 03:34:00,
2014-01-02 22:36:00,38.4,31.2,29.75,SW,233,2.0,8.0,75,0.00,,,0.37,Wunderground v.1.15,2014-01-03 03:36:00,
2014-01-02 22:37:00,38.3,31.1,29.75,WSW,255,0.0,8.0,75,0.00,,,0.37,Wunderground v.1.15,2014-01-03 03:37:00,
2014-01-02 22:38:00,38.2,31.3,29.75,WSW,242,0.0,8.0,76,0.00,,,0.37,Wunderground v.1.15,2014-01-03 03:38:00,
2014-01-02 22:39:00,38.2,31.3,29.75,SW,226,5.0,8.0,76,0.00,,,0.37,Wunderground v.1.15,2014-01-03 03:39:00,
2014-01-02 22:41:00,38.1,31.2,29.75,NW,319,2.0,2.0,76,0.00,,,0.37,Wunderground v.1.15,2014-01-03 03:41:00,
2014-01-02 22:42:00,37.9,30.7,29.75,West,281,2.0,9.0,75,0.00,,,0.37,Wunderground v.1.15,2014-01-03 03:42:00,
2014-01-02 22:43:00,37.9,30.7,29.75,West,266,7.0,9.0,75,0.00,,,0.37,Wunderground v.1.15,2014-01-03 03:43:00,
2014-01-02 22:44:00,37.8,30.6,29.75,WNW,285,5.0,9.0,75,0.00,,,0.37,Wunderground v.1.15,2014-01-03 03:44:00,
2014-01-02 22:46:00,37.8,29.9,29.75,West,266,3.0,9.0,73,0.00,,,0.37,Wunderground v.1.15,2014-01-03 03:46:00,
2014-01-02 22:48:00,37.6,29.7,29.75,West,280,5.0,9.0,73,0.00,,,0.37,Wunderground v.1.15,2014-01-03 03:48:00,
2014-01-02 22:49:00,37.5,28.6,29.76,WSW,238,4.0,9.0,70,0.00,,,0.37,Wunderground v.1.15,2014-01-03 03:49:00,
2014-01-02 22:50:00,37.5,28.2,29.76,West,262,3.0,4.0,69,0.00,,,0.37,Wunderground v.1.15,2014-01-03 03:50:00,
2014-01-02 22:51:00,37.5,28.6,29.75,West,259,2.0,8.0,70,0.00,,,0.37,Wunderground v.1.15,2014-01-03 03:51:00,
2014-01-02 22:53:00,37.3,28.1,29.75,WNW,300,6.0,11.0,69,0.00,,,0.37,Wunderground v.1.15,2014-01-03 03:53:00,
2014-01-02 22:54:00,37.3,28.1,29.75,NNW,330,5.0,11.0,69,0.00,,,0.37,Wunderground v.1.15,2014-01-03 03:54:00,
2014-01-02 22:55:00,37.2,28.0,29.75,East,88,4.0,11.0,69,0.00,,,0.37,Wunderground v.1.15,2014-01-03 03:55:00,
2014-01-02 22:57:00,37.0,28.1,29.76,NW,314,5.0,11.0,70,0.00,,,0.37,Wunderground v.1.15,2014-01-03 03:57:00,
2014-01-02 22:58:00,36.9,28.0,29.77,SW,235,2.0,11.0,70,0.00,,,0.37,Wunderground v.1.15,2014-01-03 03:58:00,
2014-01-02 22:59:00,36.9,28.0,29.77,North,4,2.0,11.0,70,0.00,,,0.37,Wunderground v.1.15,2014-01-03 03:59:00,
2014-01-02 23:00:00,36.8,27.9,29.76,West,281,2.0,4.0,70,0.00,,,0.37,Wunderground v.1.15,2014-01-03 04:00:00,
2014-01-02 23:01:00,36.7,27.8,29.77,WSW,248,2.0,8.0,70,0.00,,,0.37,Wunderground v.1.15,2014-01-03 04:01:00,
2014-01-02 23:02:00,36.7,27.8,29.77,WNW,300,4.0,8.0,70,0.00,,,0.37,Wunderground v.1.15,2014-01-03 04:02:00,
2014-01-02 23:04:00,36.6,27.7,29.76,West,280,4.0,8.0,70,0.00,,,0.37,Wunderground v.1.15,2014-01-03 04:04:00,
2014-01-02 23:05:00,36.6,28.1,29.76,WNW,287,5.0,12.0,71,0.00,,,0.37,Wunderground v.1.15,2014-01-03 04:05:00,
2014-01-02 23:07:00,36.6,27.7,29.77,WNW,283,4.0,12.0,70,0.00,,,0.37,Wunderground v.1.15,2014-01-03 04:07:00,
2014-01-02 23:09:00,36.5,28.0,29.77,SSW,203,5.0,12.0,71,0.00,,,0.37,Wunderground v.1.15,2014-01-03 04:09:00,
2014-01-02 23:10:00,36.5,27.6,29.77,ENE,60,6.0,6.0,70,0.00,,,0.37,Wunderground v.1.15,2014-01-03 04:10:00,
2014-01-02 23:11:00,36.4,27.5,29.77,WNW,295,9.0,9.0,70,0.00,,,0.37,Wunderground v.1.15,2014-01-03 04:11:00,
2014-01-02 23:12:00,36.5,27.3,29.77,NW,314,8.0,10.0,69,0.00,,,0.37,Wunderground v.1.15,2014-01-03 04:12:00,
2014-01-02 23:14:00,36.5,26.9,29.77,WNW,293,7.0,10.0,68,0.00,,,0.37,Wunderground v.1.15,2014-01-03 04:14:00,
2014-01-02 23:15:00,36.5,27.3,29.78,WNW,290,6.0,10.0,69,0.00,,,0.37,Wunderground v.1.15,2014-01-03 04:15:00,
2014-01-02 23:16:00,36.5,26.9,29.78,WSW,257,7.0,10.0,68,0.00,,,0.37,Wunderground v.1.15,2014-01-03 04:16:00,
2014-01-02 23:17:00,36.5,26.9,29.78,WNW,293,3.0,10.0,68,0.00,,,0.37,Wunderground v.1.15,2014-01-03 04:17:00,
2014-01-02 23:20:00,36.5,27.3,29.78,SSW,212,4.0,5.0,69,0.00,,,0.37,Wunderground v.1.15,2014-01-03 04:20:00,
2014-01-02 23:21:00,36.4,26.8,29.78,West,273,5.0,9.0,68,0.00,,,0.37,Wunderground v.1.15,2014-01-03 04:21:00,
2014-01-02 23:22:00,36.4,26.8,29.78,NE,41,7.0,10.0,68,0.00,,,0.37,Wunderground v.1.15,2014-01-03 04:22:00,
2014-01-02 23:25:00,36.2,26.6,29.79,West,270,2.0,17.0,68,0.00,,,0.37,Wunderground v.1.15,2014-01-03 04:25:00,
2014-01-02 23:26:00,36.2,27.4,29.79,WSW,248,9.0,17.0,70,0.00,,,0.37,Wunderground v.1.15,2014-01-03 04:26:00,
2014-01-02 23:27:00,36.1,26.6,29.79,NNE,26,7.0,17.0,68,0.00,,,0.37,Wunderground v.1.15,2014-01-03 04:27:00,
2014-01-02 23:31:00,35.9,26.7,29.79,WSW,248,5.0,8.0,69,0.00,,,0.37,Wunderground v.1.15,2014-01-03 04:31:00,
2014-01-02 23:32:00,35.9,26.4,29.80,WNW,295,2.0,10.0,68,0.00,,,0.37,Wunderground v.1.15,2014-01-03 04:32:00,
2014-01-02 23:34:00,35.7,26.2,29.79,West,271,3.0,10.0,68,0.00,,,0.37,Wunderground v.1.15,2014-01-03 04:34:00,
2014-01-02 23:36:00,35.6,26.1,29.80,NW,319,10.0,13.0,68,0.00,,,0.37,Wunderground v.1.15,2014-01-03 04:36:00,
2014-01-02 23:37:00,35.5,26.0,29.80,WSW,242,4.0,13.0,68,0.00,,,0.37,Wunderground v.1.15,2014-01-03 04:37:00,
2014-01-02 23:39:00,35.4,25.9,29.79,WNW,291,2.0,13.0,68,0.00,,,0.37,Wunderground v.1.15,2014-01-03 04:39:00,
2014-01-02 23:41:00,35.1,25.2,29.80,West,273,9.0,14.0,67,0.00,,,0.37,Wunderground v.1.15,2014-01-03 04:41:00,
2014-01-02 23:42:00,35.1,25.2,29.80,WNW,295,6.0,14.0,67,0.00,,,0.37,Wunderground v.1.15,2014-01-03 04:42:00,
2014-01-02 23:43:00,35.1,25.2,29.80,WNW,293,3.0,14.0,67,0.00,,,0.37,Wunderground v.1.15,2014-01-03 04:43:00,
2014-01-02 23:45:00,35.0,25.1,29.81,WNW,301,4.0,14.0,67,0.00,,,0.37,Wunderground v.1.15,2014-01-03 04:45:00,
2014-01-02 23:46:00,34.8,25.3,29.81,WSW,256,2.0,14.0,68,0.00,,,0.37,Wunderground v.1.15,2014-01-03 04:46:00,
2014-01-02 23:47:00,34.8,25.3,29.81,West,268,2.0,14.0,68,0.00,,,0.37,Wunderground v.1.15,2014-01-03 04:47:00,
2014-01-02 23:48:00,34.7,25.6,29.81,WSW,257,3.0,14.0,69,0.00,,,0.37,Wunderground v.1.15,2014-01-03 04:48:00,
2014-01-02 23:50:00,34.5,25.7,29.81,WNW,282,4.0,8.0,70,0.00,,,0.37,Wunderground v.1.15,2014-01-03 04:50:00,
2014-01-02 23:52:00,34.3,24.5,29.82,West,263,5.0,14.0,67,0.00,,,0.37,Wunderground v.1.15,2014-01-03 04:52:00,
2014-01-02 23:53:00,34.2,24.0,29.81,West,275,7.0,14.0,66,0.00,,,0.37,Wunderground v.1.15,2014-01-03 04:53:00,
2014-01-02 23:54:00,34.1,23.9,29.82,West,270,5.0,14.0,66,0.00,,,0.37,Wunderground v.1.15,2014-01-03 04:54:00,
2014-01-02 23:56:00,33.9,24.4,29.82,NW,305,9.0,14.0,68,0.00,,,0.37,Wunderground v.1.15,2014-01-03 04:56:00,
2014-01-02 23:57:00,33.8,24.0,29.82,SW,224,6.0,14.0,67,0.00,,,0.37,Wunderground v.1.15,2014-01-03 04:57:00,
2014-01-02 23:58:00,33.7,23.9,29.82,WSW,257,4.0,14.0,67,0.00,,,0.37,Wunderground v.1.15,2014-01-03 04:58:00,
2014-01-02 23:59:00,33.6,23.8,29.82,NW,321,8.0,14.0,67,0.00,,,0.37,Wunderground v.1.15,2014-01-03 04:59:00,